| time (UTC) | temp F | wind direction | speed MPH | gust MPH | rain 1hr in | rain 24hr in | rain mn in | humidity % | barometer mb |
| 20260503224904 | 80 | 23 | 6.0 | 13.0 | 0.00 | 0.00 | 0.00 | 37 | 1017.4 |
| 20260503224804 | 80 | 26 | 6.0 | 13.0 | 0.00 | 0.00 | 0.00 | 37 | 1017.5 |
| 20260503224725 | 80 | 28 | 6.0 | 13.0 | 0.00 | 0.00 | 0.00 | 38 | 1017.6 |
| 20260503224604 | 80 | 32 | 6.0 | 13.0 | 0.00 | 0.00 | 0.00 | 39 | 1017.7 |
| 20260503224504 | 80 | 34 | 6.0 | 13.0 | 0.00 | 0.00 | 0.00 | 38 | 1017.8 |
| 20260503224404 | 80 | 35 | 7.0 | 13.0 | 0.00 | 0.00 | 0.00 | 38 | 1017.8 |
| 20260503224304 | 80 | 34 | 7.0 | 13.0 | 0.00 | 0.00 | 0.00 | 37 | 1017.8 |
| 20260503224225 | 80 | 34 | 6.0 | 15.0 | 0.00 | 0.00 | 0.00 | 37 | 1017.8 |
| 20260503224104 | 80 | 34 | 6.0 | 15.0 | 0.00 | 0.00 | 0.00 | 37 | 1017.7 |
| 20260503224025 | 80 | 31 | 6.0 | 15.0 | 0.00 | 0.00 | 0.00 | 37 | 1017.8 |
| 20260503223904 | 80 | 31 | 6.0 | 15.0 | 0.00 | 0.00 | 0.00 | 38 | 1017.8 |
| 20260503223804 | 80 | 30 | 7.0 | 15.0 | 0.00 | 0.00 | 0.00 | 37 | 1017.8 |
| 20260503223725 | 80 | 30 | 7.0 | 15.0 | 0.00 | 0.00 | 0.00 | 39 | 1017.8 |
| 20260503223604 | 80 | 29 | 7.0 | 15.0 | 0.00 | 0.00 | 0.00 | 38 | 1017.9 |
| 20260503223504 | 80 | 28 | 7.0 | 15.0 | 0.00 | 0.00 | 0.00 | 38 | 1017.9 |
| 20260503223404 | 80 | 27 | 6.0 | 17.0 | 0.00 | 0.00 | 0.00 | 38 | 1017.9 |
| 20260503223304 | 80 | 27 | 5.0 | 17.0 | 0.00 | 0.00 | 0.00 | 38 | 1017.9 |
| 20260503223204 | 80 | 28 | 5.0 | 17.0 | 0.00 | 0.00 | 0.00 | 38 | 1017.9 |
| 20260503223104 | 80 | 24 | 5.0 | 17.0 | 0.00 | 0.00 | 0.00 | 38 | 1017.9 |
| 20260503223004 | 80 | 24 | 5.0 | 17.0 | 0.00 | 0.00 | 0.00 | 39 | 1017.8 |
| 20260503222925 | 80 | 22 | 4.0 | 17.0 | 0.00 | 0.00 | 0.00 | 39 | 1017.8 |
| 20260503222804 | 80 | 23 | 3.0 | 17.0 | 0.00 | 0.00 | 0.00 | 39 | 1017.8 |
| 20260503222704 | 80 | 20 | 3.0 | 17.0 | 0.00 | 0.00 | 0.00 | 39 | 1017.8 |
| 20260503222604 | 80 | 17 | 2.0 | 17.0 | 0.00 | 0.00 | 0.00 | 38 | 1017.8 |
| 20260503222504 | 80 | 8 | 1.0 | 17.0 | 0.00 | 0.00 | 0.00 | 39 | 1017.9 |
| 20260503222404 | 80 | 354 | 1.0 | 8.0 | 0.00 | 0.00 | 0.00 | 38 | 1017.9 |
| 20260503222304 | 80 | 11 | 2.0 | 11.0 | 0.00 | 0.00 | 0.00 | 38 | 1017.9 |
| 20260503222204 | 80 | 18 | 2.0 | 11.0 | 0.00 | 0.00 | 0.00 | 38 | 1017.9 |
| 20260503222104 | 80 | 25 | 2.0 | 11.0 | 0.00 | 0.00 | 0.00 | 39 | 1018.0 |
| 20260503222004 | 80 | 37 | 2.0 | 11.0 | 0.00 | 0.00 | 0.00 | 40 | 1018.0 |
| 20260503221904 | 80 | 38 | 1.0 | 11.0 | 0.00 | 0.00 | 0.00 | 39 | 1018.0 |
| 20260503221804 | 80 | 37 | 1.0 | 11.0 | 0.00 | 0.00 | 0.00 | 38 | 1018.0 |
| 20260503221704 | 80 | 36 | 1.0 | 11.0 | 0.00 | 0.00 | 0.00 | 38 | 1018.0 |
| 20260503221604 | 80 | 35 | 2.0 | 11.0 | 0.00 | 0.00 | 0.00 | 38 | 1018.1 |
| 20260503221525 | 80 | 38 | 2.0 | 11.0 | 0.00 | 0.00 | 0.00 | 39 | 1018.1 |
| 20260503221425 | 80 | 39 | 2.0 | 13.0 | 0.00 | 0.00 | 0.00 | 38 | 1018.1 |
| 20260503221304 | 80 | 40 | 1.0 | 13.0 | 0.00 | 0.00 | 0.00 | 39 | 1018.1 |
| 20260503221204 | 80 | 44 | 1.0 | 13.0 | 0.00 | 0.00 | 0.00 | 38 | 1018.1 |
| 20260503221125 | 81 | 41 | 1.0 | 13.0 | 0.00 | 0.00 | 0.00 | 38 | 1018.1 |
| 20260503221004 | 81 | 38 | 1.0 | 13.0 | 0.00 | 0.00 | 0.00 | 38 | 1018.1 |
| 20260503220904 | 81 | 36 | 1.0 | 13.0 | 0.00 | 0.00 | 0.00 | 38 | 1018.1 |
| 20260503220825 | 80 | 36 | 1.0 | 13.0 | 0.00 | 0.00 | 0.00 | 39 | 1018.1 |
| 20260503220704 | 80 | 39 | 1.0 | 13.0 | 0.00 | 0.00 | 0.00 | 38 | 1018.1 |
| 20260503220604 | 80 | 39 | 1.0 | 13.0 | 0.00 | 0.00 | 0.00 | 39 | 1018.2 |
| 20260503220504 | 80 | 32 | 1.0 | 13.0 | 0.00 | 0.00 | 0.00 | 40 | 1018.1 |
| 20260503220404 | 80 | 18 | 1.0 | 8.0 | 0.00 | 0.00 | 0.00 | 38 | 1018.1 |
| 20260503220304 | 81 | 23 | 1.0 | 8.0 | 0.00 | 0.00 | 0.00 | 37 | 1018.1 |
| 20260503220225 | 81 | 24 | 1.0 | 8.0 | 0.00 | 0.00 | 0.00 | 37 | 1018.1 |
| 20260503220104 | 81 | 33 | 2.0 | 8.0 | 0.00 | 0.00 | 0.00 | 38 | 1018.1 |
| 20260503220004 | 81 | 38 | 2.0 | 11.0 | 0.00 | 0.00 | 0.00 | 39 | 1018.2 |
| 20260503215904 | 81 | 39 | 2.0 | 11.0 | 0.00 | 0.00 | 0.00 | 39 | 1018.1 |
| 20260503215804 | 80 | 39 | 2.0 | 11.0 | 0.00 | 0.00 | 0.00 | 40 | 1018.1 |
| 20260503215704 | 80 | 39 | 2.0 | 11.0 | 0.00 | 0.00 | 0.00 | 38 | 1018.2 |
| 20260503215604 | 80 | 40 | 2.0 | 11.0 | 0.00 | 0.00 | 0.00 | 39 | 1018.1 |
| 20260503215504 | 80 | 42 | 2.0 | 11.0 | 0.00 | 0.00 | 0.00 | 39 | 1018.1 |
| 20260503215404 | 80 | 43 | 1.0 | 11.0 | 0.00 | 0.00 | 0.00 | 38 | 1018.2 |
| 20260503215304 | 80 | 46 | 1.0 | 11.0 | 0.00 | 0.00 | 0.00 | 38 | 1018.2 |
| 20260503215204 | 80 | 49 | 1.0 | 11.0 | 0.00 | 0.00 | 0.00 | 37 | 1018.2 |
| 20260503215104 | 81 | 43 | 0.0 | 11.0 | 0.00 | 0.00 | 0.00 | 38 | 1018.2 |
| 20260503215004 | 80 | 9 | 1.0 | 7.0 | 0.00 | 0.00 | 0.00 | 39 | 1018.3 |
| 20260503214904 | 80 | 352 | 1.0 | 7.0 | 0.00 | 0.00 | 0.00 | 38 | 1018.2 |
| 20260503214804 | 80 | 11 | 1.0 | 9.0 | 0.00 | 0.00 | 0.00 | 37 | 1018.3 |
| 20260503214704 | 80 | 21 | 1.0 | 12.0 | 0.00 | 0.00 | 0.00 | 37 | 1018.3 |
| 20260503214604 | 81 | 20 | 1.0 | 12.0 | 0.00 | 0.00 | 0.00 | 38 | 1018.3 |
| 20260503214504 | 81 | 19 | 1.0 | 12.0 | 0.00 | 0.00 | 0.00 | 37 | 1018.4 |
| 20260503214404 | 81 | 16 | 2.0 | 12.0 | 0.00 | 0.00 | 0.00 | 36 | 1018.4 |
| 20260503214304 | 81 | 10 | 2.0 | 12.0 | 0.00 | 0.00 | 0.00 | 36 | 1018.4 |
| 20260503214204 | 81 | 9 | 3.0 | 12.0 | 0.00 | 0.00 | 0.00 | 36 | 1018.5 |
| 20260503214104 | 81 | 9 | 3.0 | 12.0 | 0.00 | 0.00 | 0.00 | 36 | 1018.6 |
| 20260503214004 | 81 | 10 | 2.0 | 12.0 | 0.00 | 0.00 | 0.00 | 37 | 1018.6 |
| 20260503213904 | 81 | 15 | 2.0 | 12.0 | 0.00 | 0.00 | 0.00 | 37 | 1018.6 |
| 20260503213804 | 81 | 9 | 2.0 | 12.0 | 0.00 | 0.00 | 0.00 | 37 | 1018.7 |
| 20260503213704 | 81 | 360 | 2.0 | 10.0 | 0.00 | 0.00 | 0.00 | 37 | 1018.6 |
| 20260503213604 | 81 | 360 | 2.0 | 10.0 | 0.00 | 0.00 | 0.00 | 37 | 1018.7 |
| 20260503213504 | 81 | 360 | 1.0 | 10.0 | 0.00 | 0.00 | 0.00 | 36 | 1018.7 |
| 20260503213404 | 81 | 353 | 1.0 | 10.0 | 0.00 | 0.00 | 0.00 | 36 | 1018.7 |
| 20260503213304 | 81 | 352 | 0.0 | 10.0 | 0.00 | 0.00 | 0.00 | 37 | 1018.7 |
| 20260503213204 | 81 | 356 | 0.0 | 10.0 | 0.00 | 0.00 | 0.00 | 38 | 1018.7 |
| 20260503213104 | 80 | 348 | 0.0 | 10.0 | 0.00 | 0.00 | 0.00 | 37 | 1018.8 |
| 20260503213004 | 80 | 2 | 0.0 | 4.0 | 0.00 | 0.00 | 0.00 | 37 | 1018.8 |
| 20260503212904 | 80 | 1 | 0.0 | 4.0 | 0.00 | 0.00 | 0.00 | 37 | 1018.7 |
| 20260503212804 | 80 | 336 | 0.0 | 4.0 | 0.00 | 0.00 | 0.00 | 38 | 1018.7 |
| 20260503212704 | 80 | 303 | 1.0 | 13.0 | 0.00 | 0.00 | 0.00 | 36 | 1018.7 |
| 20260503212604 | 80 | 308 | 1.0 | 13.0 | 0.00 | 0.00 | 0.00 | 36 | 1018.6 |
| 20260503212504 | 80 | 308 | 1.0 | 13.0 | 0.00 | 0.00 | 0.00 | 36 | 1018.7 |
| 20260503212404 | 80 | 311 | 1.0 | 13.0 | 0.00 | 0.00 | 0.00 | 35 | 1018.6 |
| 20260503212325 | 80 | 314 | 1.0 | 13.0 | 0.00 | 0.00 | 0.00 | 35 | 1018.7 |
| 20260503212204 | 80 | 317 | 1.0 | 13.0 | 0.00 | 0.00 | 0.00 | 35 | 1018.7 |
| 20260503212104 | 80 | 317 | 1.0 | 13.0 | 0.00 | 0.00 | 0.00 | 34 | 1018.7 |
| 20260503212004 | 80 | 320 | 1.0 | 13.0 | 0.00 | 0.00 | 0.00 | 35 | 1018.7 |
| 20260503211904 | 80 | 328 | 2.0 | 13.0 | 0.00 | 0.00 | 0.00 | 35 | 1018.8 |
| 20260503211804 | 80 | 334 | 2.0 | 13.0 | 0.00 | 0.00 | 0.00 | 34 | 1018.8 |
| 20260503211704 | 81 | 8 | 1.0 | 8.0 | 0.00 | 0.00 | 0.00 | 35 | 1018.9 |
| 20260503211625 | 81 | 39 | 1.0 | 6.0 | 0.00 | 0.00 | 0.00 | 34 | 1018.9 |
| 20260503211525 | 81 | 37 | 1.0 | 6.0 | 0.00 | 0.00 | 0.00 | 34 | 1019.0 |
| 20260503211404 | 81 | 32 | 1.0 | 6.0 | 0.00 | 0.00 | 0.00 | 33 | 1019.1 |
| 20260503211304 | 81 | 30 | 0.0 | 6.0 | 0.00 | 0.00 | 0.00 | 33 | 1019.1 |
| 20260503211204 | 81 | 28 | 0.0 | 6.0 | 0.00 | 0.00 | 0.00 | 33 | 1019.1 |
| 20260503211104 | 81 | 29 | 0.0 | 6.0 | 0.00 | 0.00 | 0.00 | 36 | 1019.2 |
| 20260503211004 | 81 | 35 | 0.0 | 5.0 | 0.00 | 0.00 | 0.00 | 35 | 1019.1 |
| 20260503210904 | 81 | 358 | 0.0 | 5.0 | 0.00 | 0.00 | 0.00 | 35 | 1019.1 |
| 20260503210804 | 81 | 334 | 0.0 | 5.0 | 0.00 | 0.00 | 0.00 | 36 | 1019.1 |
| 20260503210704 | 81 | 331 | 0.0 | 5.0 | 0.00 | 0.00 | 0.00 | 36 | 1019.2 |
| 20260503210604 | 81 | 342 | 1.0 | 8.0 | 0.00 | 0.00 | 0.00 | 37 | 1019.1 |
| 20260503210525 | 81 | 328 | 1.0 | 14.0 | 0.00 | 0.00 | 0.00 | 37 | 1019.2 |
| 20260503210404 | 80 | 321 | 1.0 | 14.0 | 0.00 | 0.00 | 0.00 | 36 | 1019.2 |
| 20260503210325 | 80 | 321 | 1.0 | 14.0 | 0.00 | 0.00 | 0.00 | 35 | 1019.2 |
| 20260503210204 | 80 | 321 | 1.0 | 14.0 | 0.00 | 0.00 | 0.00 | 35 | 1019.2 |
| 20260503210104 | 80 | 321 | 1.0 | 14.0 | 0.00 | 0.00 | 0.00 | 35 | 1019.2 |
| 20260503210005 | 80 | 322 | 1.0 | 14.0 | 0.00 | 0.00 | 0.00 | 34 | 1019.3 |
| 20260503205904 | 80 | 321 | 1.0 | 14.0 | 0.00 | 0.00 | 0.00 | 34 | 1019.3 |
| 20260503205804 | 80 | 320 | 1.0 | 14.0 | 0.00 | 0.00 | 0.00 | 34 | 1019.3 |
| 20260503205704 | 80 | 319 | 1.0 | 14.0 | 0.00 | 0.00 | 0.00 | 35 | 1019.2 |
| 20260503205604 | 80 | 310 | 1.0 | 14.0 | 0.00 | 0.00 | 0.00 | 35 | 1019.2 |
| 20260503205504 | 80 | 293 | 0.0 | 7.0 | 0.00 | 0.00 | 0.00 | 36 | 1019.2 |
| 20260503205404 | 80 | 304 | 0.0 | 7.0 | 0.00 | 0.00 | 0.00 | 37 | 1019.2 |
| 20260503205325 | 80 | 304 | 0.0 | 7.0 | 0.00 | 0.00 | 0.00 | 36 | 1019.2 |
| 20260503205204 | 80 | 304 | 0.0 | 7.0 | 0.00 | 0.00 | 0.00 | 35 | 1019.2 |
| 20260503205104 | 80 | 308 | 0.0 | 7.0 | 0.00 | 0.00 | 0.00 | 35 | 1019.2 |
| 20260503205004 | 80 | 304 | 0.0 | 7.0 | 0.00 | 0.00 | 0.00 | 36 | 1019.2 |
| 20260503204904 | 80 | 313 | 0.0 | 7.0 | 0.00 | 0.00 | 0.00 | 35 | 1019.2 |
| 20260503204804 | 80 | 322 | 0.0 | 7.0 | 0.00 | 0.00 | 0.00 | 34 | 1019.3 |
| 20260503204704 | 80 | 323 | 0.0 | 7.0 | 0.00 | 0.00 | 0.00 | 35 | 1019.4 |
| 20260503204604 | 80 | 331 | 1.0 | 7.0 | 0.00 | 0.00 | 0.00 | 35 | 1019.4 |
| 20260503204504 | 80 | 326 | 1.0 | 13.0 | 0.00 | 0.00 | 0.00 | 34 | 1019.4 |
| 20260503204404 | 80 | 332 | 2.0 | 13.0 | 0.00 | 0.00 | 0.00 | 34 | 1019.4 |
| 20260503204304 | 80 | 332 | 2.0 | 13.0 | 0.00 | 0.00 | 0.00 | 33 | 1019.4 |
| 20260503204204 | 80 | 332 | 2.0 | 13.0 | 0.00 | 0.00 | 0.00 | 33 | 1019.5 |
| 20260503204104 | 80 | 333 | 2.0 | 13.0 | 0.00 | 0.00 | 0.00 | 34 | 1019.5 |
| 20260503204004 | 80 | 334 | 2.0 | 13.0 | 0.00 | 0.00 | 0.00 | 34 | 1019.5 |
| 20260503203904 | 80 | 334 | 2.0 | 13.0 | 0.00 | 0.00 | 0.00 | 34 | 1019.6 |
| 20260503203804 | 80 | 334 | 1.0 | 13.0 | 0.00 | 0.00 | 0.00 | 34 | 1019.5 |
| 20260503203704 | 80 | 334 | 1.0 | 13.0 | 0.00 | 0.00 | 0.00 | 33 | 1019.5 |
| 20260503203604 | 80 | 339 | 1.0 | 13.0 | 0.00 | 0.00 | 0.00 | 34 | 1019.5 |
| 20260503203504 | 81 | 349 | 1.0 | 12.0 | 0.00 | 0.00 | 0.00 | 35 | 1019.6 |
| 20260503203425 | 81 | 20 | 1.0 | 10.0 | 0.00 | 0.00 | 0.00 | 36 | 1019.6 |
| 20260503203304 | 81 | 17 | 1.0 | 10.0 | 0.00 | 0.00 | 0.00 | 35 | 1019.6 |
| 20260503203204 | 81 | 17 | 1.0 | 10.0 | 0.00 | 0.00 | 0.00 | 36 | 1019.7 |
| 20260503203125 | 81 | 30 | 1.0 | 10.0 | 0.00 | 0.00 | 0.00 | 36 | 1019.7 |
| 20260503203025 | 81 | 39 | 1.0 | 10.0 | 0.00 | 0.00 | 0.00 | 36 | 1019.7 |
| 20260503202904 | 80 | 41 | 1.0 | 10.0 | 0.00 | 0.00 | 0.00 | 35 | 1019.8 |
| 20260503202804 | 81 | 37 | 1.0 | 10.0 | 0.00 | 0.00 | 0.00 | 35 | 1019.9 |
| 20260503202704 | 81 | 33 | 1.0 | 10.0 | 0.00 | 0.00 | 0.00 | 36 | 1019.9 |
| 20260503202604 | 81 | 28 | 1.0 | 10.0 | 0.00 | 0.00 | 0.00 | 36 | 1020.0 |
| 20260503202504 | 80 | 27 | 0.0 | 10.0 | 0.00 | 0.00 | 0.00 | 35 | 1019.9 |
| 20260503202404 | 80 | 20 | 0.0 | 7.0 | 0.00 | 0.00 | 0.00 | 34 | 1019.9 |
| 20260503202304 | 80 | 359 | 1.0 | 11.0 | 0.00 | 0.00 | 0.00 | 34 | 1019.9 |
| 20260503202225 | 80 | 352 | 1.0 | 12.0 | 0.00 | 0.00 | 0.00 | 35 | 1019.9 |
| 20260503202104 | 80 | 335 | 1.0 | 12.0 | 0.00 | 0.00 | 0.00 | 34 | 1019.9 |
| 20260503202025 | 80 | 329 | 1.0 | 12.0 | 0.00 | 0.00 | 0.00 | 34 | 1020.0 |
| 20260503201925 | 80 | 327 | 1.0 | 12.0 | 0.00 | 0.00 | 0.00 | 34 | 1020.0 |
| 20260503201804 | 80 | 330 | 1.0 | 12.0 | 0.00 | 0.00 | 0.00 | 35 | 1019.9 |
| 20260503201704 | 80 | 330 | 1.0 | 12.0 | 0.00 | 0.00 | 0.00 | 35 | 1020.0 |
| 20260503201604 | 80 | 330 | 1.0 | 12.0 | 0.00 | 0.00 | 0.00 | 35 | 1019.9 |
| 20260503201504 | 80 | 330 | 1.0 | 12.0 | 0.00 | 0.00 | 0.00 | 34 | 1019.9 |
| 20260503201404 | 80 | 330 | 1.0 | 12.0 | 0.00 | 0.00 | 0.00 | 35 | 1020.0 |
| 20260503201304 | 80 | 329 | 1.0 | 12.0 | 0.00 | 0.00 | 0.00 | 35 | 1020.0 |
| 20260503201204 | 80 | 323 | 1.0 | 9.0 | 0.00 | 0.00 | 0.00 | 35 | 1020.0 |
| 20260503201104 | 80 | 355 | 1.0 | 9.0 | 0.00 | 0.00 | 0.00 | 35 | 1020.0 |
| 20260503201004 | 80 | 14 | 1.0 | 9.0 | 0.00 | 0.00 | 0.00 | 36 | 1020.0 |
| 20260503200904 | 80 | 17 | 1.0 | 11.0 | 0.00 | 0.00 | 0.00 | 36 | 1020.1 |
| 20260503200825 | 80 | 21 | 1.0 | 11.0 | 0.00 | 0.00 | 0.00 | 35 | 1020.1 |
| 20260503200725 | 80 | 22 | 1.0 | 11.0 | 0.00 | 0.00 | 0.00 | 36 | 1020.1 |
| 20260503200604 | 80 | 24 | 1.0 | 11.0 | 0.00 | 0.00 | 0.00 | 36 | 1020.2 |
| 20260503200504 | 80 | 29 | 2.0 | 11.0 | 0.00 | 0.00 | 0.00 | 38 | 1020.1 |
| 20260503200404 | 80 | 35 | 2.0 | 11.0 | 0.00 | 0.00 | 0.00 | 40 | 1020.1 |
| 20260503200304 | 80 | 35 | 2.0 | 11.0 | 0.00 | 0.00 | 0.00 | 41 | 1020.1 |
| 20260503200225 | 80 | 35 | 2.0 | 11.0 | 0.00 | 0.00 | 0.00 | 41 | 1020.1 |
| 20260503200104 | 80 | 6 | 2.0 | 11.0 | 0.00 | 0.00 | 0.00 | 39 | 1020.2 |
| 20260503200004 | 80 | 359 | 2.0 | 11.0 | 0.00 | 0.00 | 0.00 | 39 | 1020.2 |
| 20260503195904 | 80 | 12 | 2.0 | 12.0 | 0.00 | 0.00 | 0.00 | 39 | 1020.2 |
| 20260503195805 | 80 | 14 | 2.0 | 13.0 | 0.00 | 0.00 | 0.00 | 40 | 1020.3 |
| 20260503195704 | 80 | 13 | 2.0 | 13.0 | 0.00 | 0.00 | 0.00 | 40 | 1020.3 |
| 20260503195604 | 80 | 13 | 2.0 | 13.0 | 0.00 | 0.00 | 0.00 | 40 | 1020.3 |
| 20260503195504 | 80 | 17 | 2.0 | 13.0 | 0.00 | 0.00 | 0.00 | 41 | 1020.4 |
| 20260503195404 | 80 | 15 | 2.0 | 13.0 | 0.00 | 0.00 | 0.00 | 42 | 1020.4 |
| 20260503195304 | 80 | 15 | 2.0 | 13.0 | 0.00 | 0.00 | 0.00 | 40 | 1020.3 |
| 20260503195204 | 79 | 16 | 2.0 | 13.0 | 0.00 | 0.00 | 0.00 | 40 | 1020.3 |
| 20260503195104 | 79 | 39 | 1.0 | 13.0 | 0.00 | 0.00 | 0.00 | 41 | 1020.2 |
| 20260503195003 | 79 | 35 | 1.0 | 13.0 | 0.00 | 0.00 | 0.00 | 40 | 1020.2 |
| 20260503194904 | 79 | 36 | 1.0 | 13.0 | 0.00 | 0.00 | 0.00 | 41 | 1020.2 |
| 20260503194825 | 79 | 46 | 1.0 | 8.0 | 0.00 | 0.00 | 0.00 | 40 | 1020.2 |
| 20260503194725 | 79 | 46 | 1.0 | 8.0 | 0.00 | 0.00 | 0.00 | 39 | 1020.2 |
| 20260503194604 | 79 | 45 | 1.0 | 8.0 | 0.00 | 0.00 | 0.00 | 39 | 1020.3 |
| 20260503194504 | 79 | 32 | 1.0 | 11.0 | 0.00 | 0.00 | 0.00 | 40 | 1020.3 |
| 20260503194404 | 79 | 35 | 1.0 | 11.0 | 0.00 | 0.00 | 0.00 | 40 | 1020.3 |
| 20260503194304 | 79 | 39 | 1.0 | 11.0 | 0.00 | 0.00 | 0.00 | 40 | 1020.4 |
| 20260503194204 | 79 | 35 | 2.0 | 11.0 | 0.00 | 0.00 | 0.00 | 41 | 1020.5 |
| 20260503194104 | 79 | 36 | 2.0 | 11.0 | 0.00 | 0.00 | 0.00 | 41 | 1020.5 |
| 20260503194004 | 79 | 39 | 2.0 | 11.0 | 0.00 | 0.00 | 0.00 | 42 | 1020.6 |
| 20260503193904 | 79 | 39 | 2.0 | 11.0 | 0.00 | 0.00 | 0.00 | 40 | 1020.5 |
| 20260503193804 | 79 | 34 | 2.0 | 11.0 | 0.00 | 0.00 | 0.00 | 39 | 1020.4 |
| 20260503193725 | 80 | 34 | 2.0 | 11.0 | 0.00 | 0.00 | 0.00 | 40 | 1020.4 |
| 20260503193604 | 80 | 30 | 3.0 | 11.0 | 0.00 | 0.00 | 0.00 | 39 | 1020.5 |
| 20260503193504 | 80 | 29 | 3.0 | 11.0 | 0.00 | 0.00 | 0.00 | 41 | 1020.6 |
| 20260503193404 | 80 | 28 | 2.0 | 11.0 | 0.00 | 0.00 | 0.00 | 40 | 1020.6 |
| 20260503193304 | 80 | 25 | 2.0 | 11.0 | 0.00 | 0.00 | 0.00 | 40 | 1020.5 |
| 20260503193225 | 80 | 27 | 2.0 | 11.0 | 0.00 | 0.00 | 0.00 | 40 | 1020.5 |
| 20260503193104 | 80 | 18 | 2.0 | 9.0 | 0.00 | 0.00 | 0.00 | 39 | 1020.6 |
| 20260503193004 | 80 | 16 | 2.0 | 9.0 | 0.00 | 0.00 | 0.00 | 39 | 1020.6 |
| 20260503192925 | 80 | 11 | 1.0 | 9.0 | 0.00 | 0.00 | 0.00 | 38 | 1020.6 |
| 20260503192804 | 80 | 8 | 1.0 | 9.0 | 0.00 | 0.00 | 0.00 | 38 | 1020.6 |
| 20260503192725 | 80 | 352 | 2.0 | 9.0 | 0.00 | 0.00 | 0.00 | 38 | 1020.7 |
| 20260503192604 | 80 | 344 | 2.0 | 8.0 | 0.00 | 0.00 | 0.00 | 39 | 1020.7 |
| 20260503192504 | 80 | 336 | 2.0 | 10.0 | 0.00 | 0.00 | 0.00 | 38 | 1020.7 |
| 20260503192404 | 80 | 345 | 2.0 | 10.0 | 0.00 | 0.00 | 0.00 | 39 | 1020.7 |
| 20260503192305 | 80 | 352 | 2.0 | 10.0 | 0.00 | 0.00 | 0.00 | 40 | 1020.7 |
| 20260503192204 | 80 | 354 | 2.0 | 10.0 | 0.00 | 0.00 | 0.00 | 39 | 1020.7 |
| 20260503192104 | 80 | 354 | 2.0 | 10.0 | 0.00 | 0.00 | 0.00 | 38 | 1020.7 |
| 20260503192004 | 80 | 355 | 2.0 | 10.0 | 0.00 | 0.00 | 0.00 | 41 | 1020.8 |
| 20260503191904 | 80 | 356 | 2.0 | 10.0 | 0.00 | 0.00 | 0.00 | 40 | 1020.7 |
| 20260503191804 | 80 | 358 | 2.0 | 10.0 | 0.00 | 0.00 | 0.00 | 39 | 1020.8 |
| 20260503191704 | 80 | 33 | 2.0 | 10.0 | 0.00 | 0.00 | 0.00 | 40 | 1020.9 |
| 20260503191603 | 80 | 36 | 1.0 | 10.0 | 0.00 | 0.00 | 0.00 | 40 | 1020.8 |
| 20260503191525 | 80 | 45 | 1.0 | 10.0 | 0.00 | 0.00 | 0.00 | 40 | 1020.9 |
| 20260503191404 | 80 | 48 | 1.0 | 10.0 | 0.00 | 0.00 | 0.00 | 40 | 1020.9 |
| 20260503191304 | 80 | 52 | 1.0 | 6.0 | 0.00 | 0.00 | 0.00 | 41 | 1020.9 |
| 20260503191204 | 80 | 57 | 1.0 | 6.0 | 0.00 | 0.00 | 0.00 | 40 | 1020.9 |
| 20260503191125 | 80 | 55 | 1.0 | 6.0 | 0.00 | 0.00 | 0.00 | 40 | 1020.9 |
| 20260503191004 | 80 | 54 | 1.0 | 6.0 | 0.00 | 0.00 | 0.00 | 39 | 1020.9 |
| 20260503190904 | 80 | 34 | 1.0 | 6.0 | 0.00 | 0.00 | 0.00 | 40 | 1021.0 |
| 20260503190804 | 80 | 11 | 1.0 | 11.0 | 0.00 | 0.00 | 0.00 | 41 | 1021.0 |
| 20260503190704 | 80 | 349 | 2.0 | 12.0 | 0.00 | 0.00 | 0.00 | 40 | 1021.0 |
| 20260503190604 | 80 | 2 | 2.0 | 13.0 | 0.00 | 0.00 | 0.00 | 39 | 1021.0 |
| 20260503190504 | 80 | 3 | 2.0 | 14.0 | 0.00 | 0.00 | 0.00 | 39 | 1021.0 |
| 20260503190404 | 79 | 1 | 2.0 | 14.0 | 0.00 | 0.00 | 0.00 | 38 | 1021.1 |
| 20260503190304 | 79 | 1 | 2.0 | 14.0 | 0.00 | 0.00 | 0.00 | 39 | 1021.0 |
| 20260503190204 | 79 | 360 | 2.0 | 14.0 | 0.00 | 0.00 | 0.00 | 38 | 1021.0 |
| 20260503190125 | 79 | 360 | 2.0 | 14.0 | 0.00 | 0.00 | 0.00 | 37 | 1021.0 |
| 20260503190004 | 80 | 360 | 2.0 | 14.0 | 0.00 | 0.00 | 0.00 | 40 | 1021.0 |
| 20260503185904 | 80 | 3 | 2.0 | 14.0 | 0.00 | 0.00 | 0.00 | 38 | 1021.0 |
| 20260503185825 | 80 | 8 | 2.0 | 14.0 | 0.00 | 0.00 | 0.00 | 39 | 1021.1 |
| 20260503185725 | 80 | 8 | 1.0 | 14.0 | 0.00 | 0.00 | 0.00 | 39 | 1021.1 |
| 20260503185604 | 79 | 2 | 0.0 | 14.0 | 0.00 | 0.00 | 0.00 | 40 | 1021.1 |
| 20260503185504 | 79 | 314 | 0.0 | 5.0 | 0.00 | 0.00 | 0.00 | 38 | 1021.2 |
| 20260503185404 | 79 | 11 | 0.0 | 4.0 | 0.00 | 0.00 | 0.00 | 39 | 1021.2 |
| 20260503185305 | 79 | 17 | 0.0 | 4.0 | 0.00 | 0.00 | 0.00 | 39 | 1021.2 |
| 20260503185204 | 79 | 20 | 0.0 | 5.0 | 0.00 | 0.00 | 0.00 | 39 | 1021.2 |
| 20260503185104 | 79 | 19 | 0.0 | 5.0 | 0.00 | 0.00 | 0.00 | 39 | 1021.2 |
| 20260503185004 | 79 | 22 | 0.0 | 5.0 | 0.00 | 0.00 | 0.00 | 39 | 1021.2 |
| 20260503184904 | 79 | 22 | 0.0 | 5.0 | 0.00 | 0.00 | 0.00 | 38 | 1021.2 |
| 20260503184804 | 79 | 24 | 0.0 | 5.0 | 0.00 | 0.00 | 0.00 | 38 | 1021.3 |
| 20260503184704 | 79 | 24 | 0.0 | 5.0 | 0.00 | 0.00 | 0.00 | 39 | 1021.3 |
| 20260503184604 | 80 | 24 | 0.0 | 5.0 | 0.00 | 0.00 | 0.00 | 38 | 1021.4 |
| 20260503184504 | 80 | 26 | 0.0 | 5.0 | 0.00 | 0.00 | 0.00 | 37 | 1021.4 |
| 20260503184425 | 80 | 12 | 0.0 | 5.0 | 0.00 | 0.00 | 0.00 | 37 | 1021.4 |
| 20260503184304 | 80 | 12 | 0.0 | 5.0 | 0.00 | 0.00 | 0.00 | 39 | 1021.4 |
| 20260503184204 | 80 | 13 | 0.0 | 5.0 | 0.00 | 0.00 | 0.00 | 40 | 1021.4 |
| 20260503184104 | 80 | 67 | 0.0 | 1.0 | 0.00 | 0.00 | 0.00 | 39 | 1021.3 |
| 20260503184004 | 80 | 0 | 0.0 | 1.0 | 0.00 | 0.00 | 0.00 | 39 | 1021.4 |
| 20260503183904 | 79 | 0 | 0.0 | 1.0 | 0.00 | 0.00 | 0.00 | 38 | 1021.4 |
| 20260503183804 | 79 | 0 | 0.0 | 1.0 | 0.00 | 0.00 | 0.00 | 39 | 1021.4 |
| 20260503183704 | 79 | 15 | 0.0 | 4.0 | 0.00 | 0.00 | 0.00 | 40 | 1021.5 |
| 20260503183604 | 79 | 1 | 0.0 | 7.0 | 0.00 | 0.00 | 0.00 | 39 | 1021.5 |
| 20260503183525 | 79 | 359 | 0.0 | 7.0 | 0.00 | 0.00 | 0.00 | 39 | 1021.5 |
| 20260503183425 | 79 | 359 | 0.0 | 7.0 | 0.00 | 0.00 | 0.00 | 39 | 1021.5 |
| 20260503183304 | 79 | 359 | 0.0 | 7.0 | 0.00 | 0.00 | 0.00 | 37 | 1021.5 |
| 20260503183225 | 79 | 359 | 0.0 | 7.0 | 0.00 | 0.00 | 0.00 | 38 | 1021.6 |
| 20260503183104 | 79 | 2 | 0.0 | 7.0 | 0.00 | 0.00 | 0.00 | 37 | 1021.6 |
| 20260503183004 | 79 | 1 | 0.0 | 7.0 | 0.00 | 0.00 | 0.00 | 36 | 1021.6 |
| 20260503182904 | 79 | 359 | 0.0 | 7.0 | 0.00 | 0.00 | 0.00 | 37 | 1021.7 |
| 20260503182804 | 79 | 351 | 1.0 | 7.0 | 0.00 | 0.00 | 0.00 | 37 | 1021.7 |
| 20260503182704 | 79 | 8 | 1.0 | 11.0 | 0.00 | 0.00 | 0.00 | 40 | 1021.7 |
| 20260503182604 | 79 | 20 | 1.0 | 11.0 | 0.00 | 0.00 | 0.00 | 40 | 1021.7 |
| 20260503182525 | 79 | 11 | 1.0 | 11.0 | 0.00 | 0.00 | 0.00 | 41 | 1021.7 |
| 20260503182404 | 78 | 11 | 1.0 | 11.0 | 0.00 | 0.00 | 0.00 | 39 | 1021.7 |
| 20260503182305 | 78 | 6 | 1.0 | 11.0 | 0.00 | 0.00 | 0.00 | 40 | 1021.8 |
| 20260503182204 | 78 | 6 | 1.0 | 11.0 | 0.00 | 0.00 | 0.00 | 39 | 1021.8 |
| 20260503182104 | 78 | 356 | 1.0 | 11.0 | 0.00 | 0.00 | 0.00 | 39 | 1021.7 |
| 20260503182005 | 78 | 349 | 1.0 | 11.0 | 0.00 | 0.00 | 0.00 | 39 | 1021.8 |
| 20260503181904 | 78 | 353 | 1.0 | 11.0 | 0.00 | 0.00 | 0.00 | 40 | 1021.8 |
| 20260503181804 | 78 | 356 | 1.0 | 11.0 | 0.00 | 0.00 | 0.00 | 43 | 1021.8 |
| 20260503181704 | 78 | 354 | 1.0 | 11.0 | 0.00 | 0.00 | 0.00 | 42 | 1021.8 |
| 20260503181604 | 78 | 355 | 1.0 | 9.0 | 0.00 | 0.00 | 0.00 | 42 | 1021.8 |
| 20260503181505 | 78 | 10 | 1.0 | 9.0 | 0.00 | 0.00 | 0.00 | 41 | 1021.8 |
| 20260503181404 | 78 | 16 | 1.0 | 9.0 | 0.00 | 0.00 | 0.00 | 42 | 1021.8 |
| 20260503181304 | 78 | 27 | 1.0 | 9.0 | 0.00 | 0.00 | 0.00 | 41 | 1021.9 |
| 20260503181204 | 78 | 35 | 2.0 | 10.0 | 0.00 | 0.00 | 0.00 | 42 | 1021.9 |
| 20260503181104 | 78 | 36 | 2.0 | 10.0 | 0.00 | 0.00 | 0.00 | 42 | 1022.0 |
| 20260503181004 | 78 | 42 | 2.0 | 10.0 | 0.00 | 0.00 | 0.00 | 42 | 1022.0 |
| 20260503180925 | 78 | 42 | 2.0 | 10.0 | 0.00 | 0.00 | 0.00 | 42 | 1022.1 |
| 20260503180804 | 78 | 51 | 2.0 | 10.0 | 0.00 | 0.00 | 0.00 | 42 | 1022.1 |
| 20260503180725 | 78 | 52 | 1.0 | 10.0 | 0.00 | 0.00 | 0.00 | 42 | 1022.1 |
| 20260503180604 | 78 | 47 | 1.0 | 10.0 | 0.00 | 0.00 | 0.00 | 42 | 1022.2 |
| 20260503180525 | 78 | 45 | 1.0 | 10.0 | 0.00 | 0.00 | 0.00 | 43 | 1022.2 |
| 20260503180425 | 78 | 44 | 1.0 | 10.0 | 0.00 | 0.00 | 0.00 | 44 | 1022.2 |
| 20260503180304 | 78 | 41 | 1.0 | 10.0 | 0.00 | 0.00 | 0.00 | 44 | 1022.2 |
| 20260503180204 | 78 | 26 | 0.0 | 10.0 | 0.00 | 0.00 | 0.00 | 43 | 1022.2 |
| 20260503180104 | 78 | 42 | 1.0 | 7.0 | 0.00 | 0.00 | 0.00 | 44 | 1022.2 |
| 20260503180004 | 78 | 49 | 1.0 | 9.0 | 0.00 | 0.00 | 0.00 | 43 | 1022.2 |
| 20260503175925 | 78 | 49 | 1.0 | 9.0 | 0.00 | 0.00 | 0.00 | 43 | 1022.2 |
| 20260503175804 | 78 | 49 | 1.0 | 9.0 | 0.00 | 0.00 | 0.00 | 41 | 1022.2 |
| 20260503175704 | 78 | 35 | 1.0 | 9.0 | 0.00 | 0.00 | 0.00 | 40 | 1022.2 |
| 20260503175604 | 78 | 31 | 1.0 | 9.0 | 0.00 | 0.00 | 0.00 | 40 | 1022.3 |
| 20260503175504 | 78 | 30 | 1.0 | 9.0 | 0.00 | 0.00 | 0.00 | 41 | 1022.3 |
| 20260503175404 | 78 | 31 | 1.0 | 9.0 | 0.00 | 0.00 | 0.00 | 43 | 1022.3 |
| 20260503175305 | 78 | 32 | 1.0 | 9.0 | 0.00 | 0.00 | 0.00 | 42 | 1022.3 |
| 20260503175204 | 78 | 32 | 1.0 | 9.0 | 0.00 | 0.00 | 0.00 | 41 | 1022.3 |
| 20260503175104 | 78 | 26 | 1.0 | 9.0 | 0.00 | 0.00 | 0.00 | 42 | 1022.3 |
| 20260503175004 | 78 | 353 | 1.0 | 9.0 | 0.00 | 0.00 | 0.00 | 41 | 1022.4 |
| 20260503174904 | 78 | 346 | 1.0 | 9.0 | 0.00 | 0.00 | 0.00 | 41 | 1022.4 |
| 20260503174804 | 78 | 344 | 1.0 | 9.0 | 0.00 | 0.00 | 0.00 | 41 | 1022.5 |
| 20260503174704 | 78 | 349 | 1.0 | 9.0 | 0.00 | 0.00 | 0.00 | 40 | 1022.4 |
| 20260503174625 | 78 | 355 | 1.0 | 9.0 | 0.00 | 0.00 | 0.00 | 40 | 1022.4 |
| 20260503174504 | 78 | 5 | 1.0 | 9.0 | 0.00 | 0.00 | 0.00 | 42 | 1022.5 |
| 20260503174404 | 78 | 6 | 1.0 | 9.0 | 0.00 | 0.00 | 0.00 | 40 | 1022.4 |
| 20260503174304 | 78 | 10 | 2.0 | 12.0 | 0.00 | 0.00 | 0.00 | 42 | 1022.4 |
| 20260503174204 | 78 | 10 | 1.0 | 12.0 | 0.00 | 0.00 | 0.00 | 40 | 1022.4 |
| 20260503174104 | 78 | 6 | 1.0 | 12.0 | 0.00 | 0.00 | 0.00 | 40 | 1022.5 |
| 20260503174004 | 78 | 21 | 1.0 | 12.0 | 0.00 | 0.00 | 0.00 | 40 | 1022.5 |
| 20260503173904 | 78 | 40 | 1.0 | 12.0 | 0.00 | 0.00 | 0.00 | 42 | 1022.5 |
| 20260503173804 | 78 | 40 | 1.0 | 12.0 | 0.00 | 0.00 | 0.00 | 41 | 1022.5 |
| 20260503173704 | 78 | 41 | 1.0 | 12.0 | 0.00 | 0.00 | 0.00 | 41 | 1022.5 |
| 20260503173625 | 78 | 40 | 2.0 | 12.0 | 0.00 | 0.00 | 0.00 | 41 | 1022.6 |
| 20260503173525 | 78 | 36 | 2.0 | 12.0 | 0.00 | 0.00 | 0.00 | 41 | 1022.6 |
| 20260503173425 | 78 | 35 | 2.0 | 12.0 | 0.00 | 0.00 | 0.00 | 39 | 1022.6 |
| 20260503173325 | 78 | 37 | 1.0 | 12.0 | 0.00 | 0.00 | 0.00 | 41 | 1022.6 |
| 20260503173204 | 78 | 36 | 2.0 | 11.0 | 0.00 | 0.00 | 0.00 | 40 | 1022.6 |
| 20260503173104 | 78 | 37 | 2.0 | 11.0 | 0.00 | 0.00 | 0.00 | 42 | 1022.6 |
| 20260503173004 | 77 | 39 | 2.0 | 11.0 | 0.00 | 0.00 | 0.00 | 41 | 1022.6 |
| 20260503172904 | 78 | 31 | 1.0 | 10.0 | 0.00 | 0.00 | 0.00 | 42 | 1022.6 |
| 20260503172825 | 78 | 31 | 1.0 | 10.0 | 0.00 | 0.00 | 0.00 | 41 | 1022.6 |
| 20260503172725 | 78 | 31 | 1.0 | 10.0 | 0.00 | 0.00 | 0.00 | 41 | 1022.6 |
| 20260503172604 | 77 | 32 | 0.0 | 10.0 | 0.00 | 0.00 | 0.00 | 41 | 1022.6 |
| 20260503172525 | 77 | 26 | 0.0 | 10.0 | 0.00 | 0.00 | 0.00 | 42 | 1022.7 |
| 20260503172404 | 77 | 34 | 1.0 | 10.0 | 0.00 | 0.00 | 0.00 | 43 | 1022.7 |
| 20260503172305 | 77 | 35 | 1.0 | 10.0 | 0.00 | 0.00 | 0.00 | 43 | 1022.7 |
| 20260503172204 | 77 | 36 | 1.0 | 7.0 | 0.00 | 0.00 | 0.00 | 44 | 1022.7 |
| 20260503172104 | 77 | 38 | 1.0 | 7.0 | 0.00 | 0.00 | 0.00 | 43 | 1022.7 |
| 20260503172025 | 77 | 37 | 1.0 | 7.0 | 0.00 | 0.00 | 0.00 | 43 | 1022.7 |
| 20260503171904 | 77 | 36 | 1.0 | 7.0 | 0.00 | 0.00 | 0.00 | 43 | 1022.8 |
| 20260503171804 | 77 | 35 | 1.0 | 7.0 | 0.00 | 0.00 | 0.00 | 45 | 1022.8 |
| 20260503171704 | 76 | 35 | 1.0 | 7.0 | 0.00 | 0.00 | 0.00 | 44 | 1022.8 |
| 20260503171604 | 76 | 36 | 1.0 | 7.0 | 0.00 | 0.00 | 0.00 | 45 | 1022.8 |
| 20260503171504 | 76 | 36 | 1.0 | 7.0 | 0.00 | 0.00 | 0.00 | 44 | 1022.8 |
| 20260503171404 | 76 | 33 | 1.0 | 6.0 | 0.00 | 0.00 | 0.00 | 45 | 1022.8 |
| 20260503171325 | 76 | 32 | 0.0 | 6.0 | 0.00 | 0.00 | 0.00 | 45 | 1022.8 |
| 20260503171204 | 77 | 31 | 0.0 | 6.0 | 0.00 | 0.00 | 0.00 | 46 | 1022.8 |
| 20260503171104 | 77 | 30 | 0.0 | 5.0 | 0.00 | 0.00 | 0.00 | 45 | 1022.8 |
| 20260503171004 | 77 | 36 | 0.0 | 6.0 | 0.00 | 0.00 | 0.00 | 44 | 1022.8 |
| 20260503170904 | 77 | 355 | 0.0 | 6.0 | 0.00 | 0.00 | 0.00 | 45 | 1022.8 |
| 20260503170804 | 77 | 348 | 0.0 | 6.0 | 0.00 | 0.00 | 0.00 | 46 | 1022.8 |
| 20260503170704 | 77 | 348 | 0.0 | 6.0 | 0.00 | 0.00 | 0.00 | 45 | 1022.8 |
| 20260503170604 | 77 | 340 | 0.0 | 6.0 | 0.00 | 0.00 | 0.00 | 46 | 1022.8 |
| 20260503170504 | 77 | 340 | 0.0 | 6.0 | 0.00 | 0.00 | 0.00 | 47 | 1022.9 |
| 20260503170404 | 77 | 340 | 0.0 | 6.0 | 0.00 | 0.00 | 0.00 | 46 | 1022.9 |
| 20260503170304 | 77 | 341 | 0.0 | 6.0 | 0.00 | 0.00 | 0.00 | 47 | 1022.9 |
| 20260503170204 | 77 | 341 | 0.0 | 6.0 | 0.00 | 0.00 | 0.00 | 47 | 1022.9 |
| 20260503170104 | 77 | 340 | 0.0 | 6.0 | 0.00 | 0.00 | 0.00 | 46 | 1022.9 |
| 20260503160204 | 74 | 51 | 0.0 | 7.0 | 0.00 | 0.00 | 0.00 | 47 | 1023.5 |
| 20260503160104 | 74 | 53 | 0.0 | 7.0 | 0.00 | 0.00 | 0.00 | 49 | 1023.5 |
| 20260503151004 | 72 | 51 | 3.0 | 12.0 | 0.00 | 0.00 | 0.00 | 50 | 1023.3 |
| 20260503150904 | 72 | 51 | 2.0 | 12.0 | 0.00 | 0.00 | 0.00 | 51 | 1023.2 |
| 20260503150825 | 72 | 53 | 1.0 | 11.0 | 0.00 | 0.00 | 0.00 | 51 | 1023.2 |
| 20260503150704 | 72 | 56 | 1.0 | 9.0 | 0.00 | 0.00 | 0.00 | 51 | 1023.2 |
| 20260503150604 | 72 | 55 | 0.0 | 8.0 | 0.00 | 0.00 | 0.00 | 52 | 1023.2 |
| 20260503150504 | 72 | 46 | 0.0 | 2.0 | 0.00 | 0.00 | 0.00 | 53 | 1023.2 |
| 20260503150404 | 71 | 46 | 0.0 | 2.0 | 0.00 | 0.00 | 0.00 | 53 | 1023.3 |
| 20260503150303 | 71 | 47 | 0.0 | 2.0 | 0.00 | 0.00 | 0.00 | 52 | 1023.2 |
| 20260503150204 | 71 | 54 | 0.0 | 3.0 | 0.00 | 0.00 | 0.00 | 52 | 1023.2 |
| 20260503150104 | 71 | 63 | 1.0 | 5.0 | 0.00 | 0.00 | 0.00 | 51 | 1023.2 |
| 20260503140304 | 68 | 71 | 0.0 | 3.0 | 0.00 | 0.00 | 0.00 | 55 | 1022.9 |
| 20260503140204 | 68 | 71 | 1.0 | 3.0 | 0.00 | 0.00 | 0.00 | 54 | 1022.9 |
| 20260503140104 | 68 | 70 | 1.0 | 6.0 | 0.00 | 0.00 | 0.00 | 54 | 1022.9 |
| 20260503131404 | 64 | 98 | 0.0 | 3.0 | 0.00 | 0.00 | 0.00 | 55 | 1022.8 |
| 20260503131304 | 64 | 98 | 0.0 | 3.0 | 0.00 | 0.00 | 0.00 | 55 | 1022.8 |
| 20260503131204 | 64 | 98 | 0.0 | 3.0 | 0.00 | 0.00 | 0.00 | 55 | 1022.8 |
| 20260503131104 | 64 | 98 | 0.0 | 3.0 | 0.00 | 0.00 | 0.00 | 55 | 1022.8 |
| 20260503131004 | 64 | 98 | 0.0 | 3.0 | 0.00 | 0.00 | 0.00 | 54 | 1022.8 |
| 20260503130904 | 65 | 98 | 0.0 | 3.0 | 0.00 | 0.00 | 0.00 | 55 | 1022.8 |
| 20260503130804 | 65 | 98 | 0.0 | 3.0 | 0.00 | 0.00 | 0.00 | 54 | 1022.8 |
| 20260503130704 | 65 | 98 | 0.0 | 3.0 | 0.00 | 0.00 | 0.00 | 54 | 1022.7 |
| 20260503130604 | 65 | 98 | 0.0 | 3.0 | 0.00 | 0.00 | 0.00 | 54 | 1022.7 |
| 20260503130525 | 66 | 0 | 0.0 | 0.0 | 0.00 | 0.00 | 0.00 | 53 | 1022.7 |
| 20260503130404 | 66 | 0 | 0.0 | 0.0 | 0.00 | 0.00 | 0.00 | 53 | 1022.7 |
| 20260503130325 | 66 | 0 | 0.0 | 0.0 | 0.00 | 0.00 | 0.00 | 53 | 1022.7 |
| 20260503130204 | 66 | 0 | 0.0 | 0.0 | 0.00 | 0.00 | 0.00 | 53 | 1022.7 |
| 20260503130104 | 66 | 0 | 0.0 | 0.0 | 0.00 | 0.00 | 0.00 | 52 | 1022.7 |
| 20260503120204 | 57 | 0 | 0.0 | 0.0 | 0.00 | 0.00 | 0.00 | 44 | 1022.1 |
| 20260503120103 | 57 | 0 | 0.0 | 0.0 | 0.00 | 0.00 | 0.00 | 44 | 1022.1 |
| 20260503110825 | 57 | 0 | 0.0 | 0.0 | 0.00 | 0.00 | 0.00 | 42 | 1021.9 |
| 20260503110704 | 57 | 0 | 0.0 | 0.0 | 0.00 | 0.00 | 0.00 | 43 | 1021.8 |
| 20260503110604 | 57 | 0 | 0.0 | 0.0 | 0.00 | 0.00 | 0.00 | 43 | 1021.8 |
| 20260503110503 | 57 | 0 | 0.0 | 0.0 | 0.00 | 0.00 | 0.00 | 43 | 1021.8 |
| 20260503110404 | 57 | 0 | 0.0 | 0.0 | 0.00 | 0.00 | 0.00 | 43 | 1021.8 |
| 20260503110303 | 57 | 0 | 0.0 | 0.0 | 0.00 | 0.00 | 0.00 | 43 | 1021.8 |
| 20260503110204 | 57 | 0 | 0.0 | 0.0 | 0.00 | 0.00 | 0.00 | 44 | 1021.8 |
| 20260503110104 | 57 | 0 | 0.0 | 0.0 | 0.00 | 0.00 | 0.00 | 44 | 1021.8 |
| 20260503100204 | 58 | 96 | 0.0 | 1.0 | 0.00 | 0.00 | 0.00 | 46 | 1021.3 |
| 20260503100104 | 58 | 96 | 0.0 | 1.0 | 0.00 | 0.00 | 0.00 | 46 | 1021.4 |
| 20260503090504 | 59 | 0 | 0.0 | 0.0 | 0.00 | 0.00 | 0.00 | 51 | 1021.3 |
| 20260503090404 | 59 | 0 | 0.0 | 0.0 | 0.00 | 0.00 | 0.00 | 51 | 1021.3 |
| 20260503090325 | 59 | 0 | 0.0 | 0.0 | 0.00 | 0.00 | 0.00 | 51 | 1021.3 |
| 20260503090204 | 59 | 0 | 0.0 | 0.0 | 0.00 | 0.00 | 0.00 | 51 | 1021.3 |
| 20260503090104 | 59 | 0 | 0.0 | 0.0 | 0.00 | 0.00 | 0.00 | 51 | 1021.4 |
| 20260503081604 | 59 | 0 | 0.0 | 0.0 | 0.00 | 0.00 | 0.00 | 45 | 1021.4 |
| 20260503081503 | 59 | 0 | 0.0 | 0.0 | 0.00 | 0.00 | 0.00 | 45 | 1021.4 |
| 20260503081404 | 59 | 0 | 0.0 | 0.0 | 0.00 | 0.00 | 0.00 | 45 | 1021.4 |
| 20260503081304 | 59 | 0 | 0.0 | 0.0 | 0.00 | 0.00 | 0.00 | 45 | 1021.5 |
| 20260503081203 | 59 | 0 | 0.0 | 0.0 | 0.00 | 0.00 | 0.00 | 45 | 1021.5 |
| 20260503081125 | 59 | 0 | 0.0 | 0.0 | 0.00 | 0.00 | 0.00 | 45 | 1021.5 |
| 20260503081004 | 59 | 0 | 0.0 | 0.0 | 0.00 | 0.00 | 0.00 | 45 | 1021.4 |
| 20260503080904 | 59 | 0 | 0.0 | 0.0 | 0.00 | 0.00 | 0.00 | 44 | 1021.4 |
| 20260503080824 | 59 | 0 | 0.0 | 0.0 | 0.00 | 0.00 | 0.00 | 44 | 1021.4 |
| 20260503080725 | 59 | 0 | 0.0 | 0.0 | 0.00 | 0.00 | 0.00 | 44 | 1021.4 |
| 20260503080604 | 59 | 0 | 0.0 | 0.0 | 0.00 | 0.00 | 0.00 | 44 | 1021.4 |
| 20260503080504 | 59 | 0 | 0.0 | 0.0 | 0.00 | 0.00 | 0.00 | 44 | 1021.4 |
| 20260503080403 | 59 | 0 | 0.0 | 0.0 | 0.00 | 0.00 | 0.00 | 44 | 1021.5 |
| 20260503080324 | 59 | 0 | 0.0 | 0.0 | 0.00 | 0.00 | 0.00 | 44 | 1021.5 |
| 20260503080204 | 59 | 0 | 0.0 | 0.0 | 0.00 | 0.00 | 0.00 | 44 | 1021.5 |
| 20260503080104 | 59 | 0 | 0.0 | 0.0 | 0.00 | 0.00 | 0.00 | 44 | 1021.5 |
| 20260503072904 | 58 | 0 | 0.0 | 0.0 | 0.00 | 0.00 | 0.00 | 35 | 1021.7 |
| 20260503072803 | 58 | 0 | 0.0 | 0.0 | 0.00 | 0.00 | 0.00 | 36 | 1021.7 |
| 20260503072704 | 58 | 0 | 0.0 | 0.0 | 0.00 | 0.00 | 0.00 | 35 | 1021.7 |
| 20260503072603 | 58 | 0 | 0.0 | 0.0 | 0.00 | 0.00 | 0.00 | 35 | 1021.6 |
| 20260503072504 | 58 | 0 | 0.0 | 0.0 | 0.00 | 0.00 | 0.00 | 36 | 1021.6 |
| 20260503072425 | 58 | 0 | 0.0 | 0.0 | 0.00 | 0.00 | 0.00 | 36 | 1021.6 |
| 20260503072305 | 58 | 0 | 0.0 | 0.0 | 0.00 | 0.00 | 0.00 | 36 | 1021.7 |
| 20260503072204 | 58 | 0 | 0.0 | 0.0 | 0.00 | 0.00 | 0.00 | 36 | 1021.7 |
| 20260503072104 | 58 | 0 | 0.0 | 0.0 | 0.00 | 0.00 | 0.00 | 37 | 1021.6 |
| 20260503072004 | 58 | 0 | 0.0 | 0.0 | 0.00 | 0.00 | 0.00 | 38 | 1021.6 |
| 20260503071903 | 58 | 0 | 0.0 | 0.0 | 0.00 | 0.00 | 0.00 | 39 | 1021.6 |
| 20260503071803 | 59 | 0 | 0.0 | 0.0 | 0.00 | 0.00 | 0.00 | 40 | 1021.7 |
| 20260503071725 | 59 | 0 | 0.0 | 0.0 | 0.00 | 0.00 | 0.00 | 41 | 1021.6 |
| 20260503071625 | 59 | 0 | 0.0 | 0.0 | 0.00 | 0.00 | 0.00 | 42 | 1021.7 |
| 20260503071504 | 59 | 0 | 0.0 | 0.0 | 0.00 | 0.00 | 0.00 | 43 | 1021.7 |
| 20260503071403 | 59 | 0 | 0.0 | 0.0 | 0.00 | 0.00 | 0.00 | 43 | 1021.7 |
| 20260503071325 | 59 | 0 | 0.0 | 0.0 | 0.00 | 0.00 | 0.00 | 43 | 1021.7 |
| 20260503071204 | 59 | 0 | 0.0 | 0.0 | 0.00 | 0.00 | 0.00 | 43 | 1021.7 |
| 20260503071125 | 59 | 0 | 0.0 | 0.0 | 0.00 | 0.00 | 0.00 | 44 | 1021.8 |
| 20260503071004 | 59 | 0 | 0.0 | 0.0 | 0.00 | 0.00 | 0.00 | 44 | 1021.8 |
| 20260503070904 | 59 | 0 | 0.0 | 0.0 | 0.00 | 0.00 | 0.00 | 44 | 1021.8 |
| 20260503070803 | 59 | 0 | 0.0 | 0.0 | 0.00 | 0.00 | 0.00 | 44 | 1021.8 |
| 20260503070703 | 59 | 0 | 0.0 | 0.0 | 0.00 | 0.00 | 0.00 | 44 | 1021.8 |
| 20260503070625 | 59 | 0 | 0.0 | 0.0 | 0.00 | 0.00 | 0.00 | 45 | 1021.8 |
| 20260503070504 | 59 | 0 | 0.0 | 0.0 | 0.00 | 0.00 | 0.00 | 45 | 1021.7 |
| 20260503070403 | 59 | 0 | 0.0 | 0.0 | 0.00 | 0.00 | 0.00 | 45 | 1021.8 |
| 20260503070303 | 59 | 0 | 0.0 | 0.0 | 0.00 | 0.00 | 0.00 | 44 | 1021.8 |
| 20260503070203 | 59 | 0 | 0.0 | 0.0 | 0.00 | 0.00 | 0.00 | 44 | 1021.8 |
| 20260503070104 | 59 | 0 | 0.0 | 0.0 | 0.00 | 0.00 | 0.00 | 44 | 1021.9 |
| 20260503060304 | 60 | 0 | 0.0 | 0.0 | 0.00 | 0.00 | 0.00 | 43 | 1021.9 |
| 20260503060204 | 60 | 0 | 0.0 | 0.0 | 0.00 | 0.00 | 0.00 | 43 | 1021.9 |
| 20260503060103 | 60 | 0 | 0.0 | 0.0 | 0.00 | 0.00 | 0.00 | 43 | 1021.8 |
| 20260503055125 | 60 | 0 | 0.0 | 0.0 | 0.00 | 0.00 | 0.00 | 41 | 1021.8 |
| 20260503055025 | 60 | 0 | 0.0 | 0.0 | 0.00 | 0.00 | 0.00 | 41 | 1021.8 |
| 20260503054904 | 60 | 0 | 0.0 | 0.0 | 0.00 | 0.00 | 0.00 | 41 | 1021.8 |
| 20260503054803 | 60 | 0 | 0.0 | 0.0 | 0.00 | 0.00 | 0.00 | 41 | 1021.8 |
| 20260503054725 | 60 | 0 | 0.0 | 0.0 | 0.00 | 0.00 | 0.00 | 42 | 1021.8 |
| 20260503054603 | 60 | 0 | 0.0 | 0.0 | 0.00 | 0.00 | 0.00 | 43 | 1021.9 |
| 20260503054504 | 60 | 0 | 0.0 | 0.0 | 0.00 | 0.00 | 0.00 | 43 | 1021.9 |
| 20260503054404 | 60 | 0 | 0.0 | 0.0 | 0.00 | 0.00 | 0.00 | 43 | 1021.9 |
| 20260503054303 | 60 | 0 | 0.0 | 0.0 | 0.00 | 0.00 | 0.00 | 45 | 1022.0 |
| 20260503054203 | 61 | 0 | 0.0 | 0.0 | 0.00 | 0.00 | 0.00 | 45 | 1021.9 |
| 20260503054104 | 61 | 0 | 0.0 | 0.0 | 0.00 | 0.00 | 0.00 | 46 | 1021.9 |
| 20260503054004 | 61 | 0 | 0.0 | 0.0 | 0.00 | 0.00 | 0.00 | 47 | 1021.9 |
| 20260503053925 | 61 | 0 | 0.0 | 0.0 | 0.00 | 0.00 | 0.00 | 48 | 1021.9 |
| 20260503053803 | 61 | 0 | 0.0 | 0.0 | 0.00 | 0.00 | 0.00 | 48 | 1021.9 |
| 20260503053704 | 61 | 0 | 0.0 | 0.0 | 0.00 | 0.00 | 0.00 | 48 | 1021.8 |
| 20260503053624 | 61 | 0 | 0.0 | 0.0 | 0.00 | 0.00 | 0.00 | 48 | 1021.8 |
| 20260503053503 | 61 | 0 | 0.0 | 0.0 | 0.00 | 0.00 | 0.00 | 48 | 1021.9 |
| 20260503053404 | 61 | 0 | 0.0 | 0.0 | 0.00 | 0.00 | 0.00 | 48 | 1021.9 |
| 20260503053303 | 61 | 0 | 0.0 | 0.0 | 0.00 | 0.00 | 0.00 | 47 | 1021.9 |
| 20260503053204 | 61 | 0 | 0.0 | 0.0 | 0.00 | 0.00 | 0.00 | 47 | 1021.9 |
| 20260503053104 | 61 | 0 | 0.0 | 0.0 | 0.00 | 0.00 | 0.00 | 47 | 1021.9 |
| 20260503053004 | 61 | 0 | 0.0 | 0.0 | 0.00 | 0.00 | 0.00 | 47 | 1021.9 |
| 20260503052925 | 61 | 0 | 0.0 | 0.0 | 0.00 | 0.00 | 0.00 | 47 | 1022.0 |
| 20260503052804 | 61 | 0 | 0.0 | 0.0 | 0.00 | 0.00 | 0.00 | 48 | 1022.0 |
| 20260503052703 | 61 | 0 | 0.0 | 0.0 | 0.00 | 0.00 | 0.00 | 48 | 1022.0 |
| 20260503052603 | 61 | 0 | 0.0 | 0.0 | 0.00 | 0.00 | 0.00 | 48 | 1022.0 |
| 20260503052503 | 61 | 0 | 0.0 | 0.0 | 0.00 | 0.00 | 0.00 | 48 | 1022.0 |
| 20260503052403 | 61 | 0 | 0.0 | 0.0 | 0.00 | 0.00 | 0.00 | 48 | 1022.0 |
| 20260503052325 | 61 | 0 | 0.0 | 0.0 | 0.00 | 0.00 | 0.00 | 48 | 1022.0 |
| 20260503052203 | 61 | 0 | 0.0 | 0.0 | 0.00 | 0.00 | 0.00 | 48 | 1022.0 |
| 20260503052104 | 61 | 0 | 0.0 | 0.0 | 0.00 | 0.00 | 0.00 | 48 | 1022.0 |
| 20260503052003 | 61 | 0 | 0.0 | 0.0 | 0.00 | 0.00 | 0.00 | 49 | 1022.0 |
| 20260503051924 | 61 | 0 | 0.0 | 0.0 | 0.00 | 0.00 | 0.00 | 48 | 1022.0 |
| 20260503051803 | 61 | 0 | 0.0 | 0.0 | 0.00 | 0.00 | 0.00 | 48 | 1022.0 |
| 20260503051704 | 61 | 0 | 0.0 | 0.0 | 0.00 | 0.00 | 0.00 | 48 | 1022.0 |
| 20260503051604 | 61 | 0 | 0.0 | 0.0 | 0.00 | 0.00 | 0.00 | 47 | 1022.0 |
| 20260503051503 | 61 | 0 | 0.0 | 0.0 | 0.00 | 0.00 | 0.00 | 47 | 1021.9 |
| 20260503051404 | 61 | 0 | 0.0 | 0.0 | 0.00 | 0.00 | 0.00 | 47 | 1022.0 |
| 20260503051303 | 61 | 0 | 0.0 | 0.0 | 0.00 | 0.00 | 0.00 | 48 | 1022.0 |
| 20260503051204 | 61 | 0 | 0.0 | 0.0 | 0.00 | 0.00 | 0.00 | 48 | 1021.9 |
| 20260503051103 | 61 | 0 | 0.0 | 0.0 | 0.00 | 0.00 | 0.00 | 48 | 1022.0 |
| 20260503051003 | 61 | 0 | 0.0 | 0.0 | 0.00 | 0.00 | 0.00 | 48 | 1021.9 |
| 20260503050904 | 61 | 0 | 0.0 | 0.0 | 0.00 | 0.00 | 0.00 | 48 | 1021.9 |
| 20260503050804 | 61 | 0 | 0.0 | 0.0 | 0.00 | 0.00 | 0.00 | 48 | 1021.9 |
| 20260503050704 | 61 | 0 | 0.0 | 0.0 | 0.00 | 0.00 | 0.00 | 48 | 1022.0 |
| 20260503050604 | 61 | 0 | 0.0 | 0.0 | 0.00 | 0.00 | 0.00 | 48 | 1022.0 |
| 20260503050503 | 61 | 0 | 0.0 | 0.0 | 0.00 | 0.00 | 0.00 | 47 | 1022.0 |
| 20260503050425 | 61 | 0 | 0.0 | 0.0 | 0.00 | 0.00 | 0.00 | 47 | 1021.9 |
| 20260503050304 | 61 | 0 | 0.0 | 0.0 | 0.00 | 0.00 | 0.00 | 47 | 1021.9 |
| 20260503050224 | 61 | 0 | 0.0 | 0.0 | 0.00 | 0.00 | 0.00 | 47 | 1021.8 |
| 20260503050103 | 61 | 0 | 0.0 | 0.0 | 0.00 | 0.00 | 0.00 | 48 | 1021.8 |
| 20260503050004 | 61 | 0 | 0.0 | 0.0 | 0.00 | 0.00 | 0.00 | 48 | 1021.8 |
| 20260503045904 | 61 | 0 | 0.0 | 0.0 | 0.00 | 0.00 | 0.00 | 48 | 1021.8 |
| 20260503045804 | 61 | 0 | 0.0 | 0.0 | 0.00 | 0.00 | 0.00 | 48 | 1021.8 |
| 20260503045725 | 61 | 0 | 0.0 | 0.0 | 0.00 | 0.00 | 0.00 | 48 | 1021.8 |
| 20260503045624 | 61 | 0 | 0.0 | 0.0 | 0.00 | 0.00 | 0.00 | 47 | 1021.8 |
| 20260503045504 | 61 | 0 | 0.0 | 0.0 | 0.00 | 0.00 | 0.00 | 47 | 1021.8 |
| 20260503045425 | 61 | 0 | 0.0 | 0.0 | 0.00 | 0.00 | 0.00 | 47 | 1021.8 |
| 20260503045305 | 61 | 0 | 0.0 | 0.0 | 0.00 | 0.00 | 0.00 | 47 | 1021.8 |
| 20260503045203 | 61 | 0 | 0.0 | 0.0 | 0.00 | 0.00 | 0.00 | 47 | 1021.9 |
| 20260503045124 | 61 | 0 | 0.0 | 0.0 | 0.00 | 0.00 | 0.00 | 46 | 1021.9 |
| 20260503045003 | 61 | 0 | 0.0 | 0.0 | 0.00 | 0.00 | 0.00 | 46 | 1021.9 |
| 20260503044903 | 61 | 0 | 0.0 | 0.0 | 0.00 | 0.00 | 0.00 | 46 | 1021.9 |
| 20260503044804 | 62 | 0 | 0.0 | 0.0 | 0.00 | 0.00 | 0.00 | 47 | 1021.9 |
| 20260503044703 | 62 | 0 | 0.0 | 0.0 | 0.00 | 0.00 | 0.00 | 47 | 1021.9 |
| 20260503044604 | 62 | 0 | 0.0 | 0.0 | 0.00 | 0.00 | 0.00 | 47 | 1021.8 |
| 20260503044504 | 62 | 0 | 0.0 | 0.0 | 0.00 | 0.00 | 0.00 | 47 | 1021.9 |
| 20260503044404 | 62 | 0 | 0.0 | 0.0 | 0.00 | 0.00 | 0.00 | 47 | 1021.9 |
| 20260503044303 | 62 | 0 | 0.0 | 0.0 | 0.00 | 0.00 | 0.00 | 47 | 1021.9 |
| 20260503044204 | 62 | 0 | 0.0 | 0.0 | 0.00 | 0.00 | 0.00 | 47 | 1021.8 |
| 20260503044104 | 62 | 0 | 0.0 | 0.0 | 0.00 | 0.00 | 0.00 | 47 | 1021.9 |
| 20260503044003 | 62 | 0 | 0.0 | 0.0 | 0.00 | 0.00 | 0.00 | 47 | 1021.9 |
| 20260503043904 | 62 | 0 | 0.0 | 0.0 | 0.00 | 0.00 | 0.00 | 46 | 1021.8 |
| 20260503043824 | 62 | 0 | 0.0 | 0.0 | 0.00 | 0.00 | 0.00 | 45 | 1021.8 |
| 20260503043704 | 62 | 0 | 0.0 | 0.0 | 0.00 | 0.00 | 0.00 | 45 | 1021.8 |
| 20260503043603 | 61 | 0 | 0.0 | 0.0 | 0.00 | 0.00 | 0.00 | 44 | 1021.8 |
| 20260503043503 | 61 | 0 | 0.0 | 0.0 | 0.00 | 0.00 | 0.00 | 44 | 1021.8 |
| 20260503043403 | 61 | 0 | 0.0 | 0.0 | 0.00 | 0.00 | 0.00 | 44 | 1021.8 |
| 20260503043303 | 61 | 0 | 0.0 | 0.0 | 0.00 | 0.00 | 0.00 | 43 | 1021.9 |
| 20260503043203 | 61 | 0 | 0.0 | 0.0 | 0.00 | 0.00 | 0.00 | 43 | 1021.8 |
| 20260503043103 | 61 | 0 | 0.0 | 0.0 | 0.00 | 0.00 | 0.00 | 43 | 1021.8 |
| 20260503043004 | 61 | 0 | 0.0 | 0.0 | 0.00 | 0.00 | 0.00 | 42 | 1021.8 |
| 20260503042903 | 61 | 0 | 0.0 | 0.0 | 0.00 | 0.00 | 0.00 | 41 | 1021.8 |
| 20260503042804 | 61 | 0 | 0.0 | 0.0 | 0.00 | 0.00 | 0.00 | 41 | 1021.8 |
| 20260503042704 | 61 | 0 | 0.0 | 0.0 | 0.00 | 0.00 | 0.00 | 39 | 1021.8 |
| 20260503042603 | 61 | 0 | 0.0 | 0.0 | 0.00 | 0.00 | 0.00 | 39 | 1021.7 |
| 20260503042504 | 61 | 0 | 0.0 | 0.0 | 0.00 | 0.00 | 0.00 | 39 | 1021.7 |
| 20260503042403 | 61 | 0 | 0.0 | 0.0 | 0.00 | 0.00 | 0.00 | 39 | 1021.7 |
| 20260503042305 | 60 | 0 | 0.0 | 0.0 | 0.00 | 0.00 | 0.00 | 38 | 1021.8 |
| 20260503042204 | 60 | 0 | 0.0 | 0.0 | 0.00 | 0.00 | 0.00 | 39 | 1021.8 |
| 20260503042103 | 60 | 0 | 0.0 | 0.0 | 0.00 | 0.00 | 0.00 | 39 | 1021.7 |
| 20260503042003 | 60 | 0 | 0.0 | 0.0 | 0.00 | 0.00 | 0.00 | 39 | 1021.7 |
| 20260503041903 | 60 | 0 | 0.0 | 0.0 | 0.00 | 0.00 | 0.00 | 44 | 1021.7 |
| 20260503041803 | 60 | 0 | 0.0 | 0.0 | 0.00 | 0.00 | 0.00 | 47 | 1021.7 |
| 20260503041704 | 60 | 0 | 0.0 | 0.0 | 0.00 | 0.00 | 0.00 | 48 | 1021.6 |
| 20260503041624 | 60 | 0 | 0.0 | 0.0 | 0.00 | 0.00 | 0.00 | 50 | 1021.7 |
| 20260503041504 | 60 | 0 | 0.0 | 0.0 | 0.00 | 0.00 | 0.00 | 51 | 1021.7 |
| 20260503041403 | 60 | 0 | 0.0 | 0.0 | 0.00 | 0.00 | 0.00 | 52 | 1021.7 |
| 20260503041304 | 61 | 0 | 0.0 | 0.0 | 0.00 | 0.00 | 0.00 | 52 | 1021.7 |
| 20260503041203 | 61 | 0 | 0.0 | 0.0 | 0.00 | 0.00 | 0.00 | 52 | 1021.7 |
| 20260503041104 | 61 | 0 | 0.0 | 0.0 | 0.00 | 0.00 | 0.00 | 52 | 1021.7 |
| 20260503041025 | 61 | 0 | 0.0 | 0.0 | 0.00 | 0.00 | 0.00 | 52 | 1021.7 |
| 20260503040904 | 61 | 0 | 0.0 | 0.0 | 0.00 | 0.00 | 0.00 | 52 | 1021.6 |
| 20260503040803 | 61 | 0 | 0.0 | 0.0 | 0.00 | 0.00 | 0.00 | 51 | 1021.7 |
| 20260503040703 | 62 | 0 | 0.0 | 0.0 | 0.00 | 0.00 | 0.00 | 51 | 1021.7 |
| 20260503040624 | 62 | 0 | 0.0 | 0.0 | 0.00 | 0.00 | 0.00 | 51 | 1021.7 |
| 20260503040504 | 62 | 0 | 0.0 | 0.0 | 0.00 | 0.00 | 0.00 | 51 | 1021.7 |
| 20260503040404 | 62 | 0 | 0.0 | 0.0 | 0.00 | 0.00 | 0.00 | 51 | 1021.7 |
| 20260503040303 | 62 | 0 | 0.0 | 0.0 | 0.00 | 0.00 | 0.00 | 52 | 1021.8 |
| 20260503040204 | 62 | 0 | 0.0 | 0.0 | 0.00 | 0.00 | 0.00 | 53 | 1021.8 |
| 20260503040104 | 62 | 0 | 0.0 | 0.0 | 0.00 | 0.00 | 0.00 | 53 | 1021.8 |
| 20260503040004 | 62 | 0 | 0.0 | 0.0 | 0.00 | 0.00 | 0.00 | 53 | 1021.8 |
| 20260503035903 | 62 | 0 | 0.0 | 0.0 | 0.00 | 0.00 | 0.00 | 53 | 1021.8 |
| 20260503035804 | 62 | 0 | 0.0 | 0.0 | 0.00 | 0.00 | 0.00 | 53 | 1021.8 |
| 20260503035724 | 62 | 0 | 0.0 | 0.0 | 0.00 | 0.00 | 0.00 | 54 | 1021.8 |
| 20260503035604 | 62 | 0 | 0.0 | 0.0 | 0.00 | 0.00 | 0.00 | 55 | 1021.8 |
| 20260503035525 | 62 | 0 | 0.0 | 0.0 | 0.00 | 0.00 | 0.00 | 55 | 1021.8 |
| 20260503035404 | 63 | 0 | 0.0 | 0.0 | 0.00 | 0.00 | 0.00 | 54 | 1021.8 |
| 20260503035305 | 63 | 0 | 0.0 | 0.0 | 0.00 | 0.00 | 0.00 | 54 | 1021.8 |
| 20260503035224 | 63 | 0 | 0.0 | 0.0 | 0.00 | 0.00 | 0.00 | 55 | 1021.8 |
| 20260503035125 | 62 | 0 | 0.0 | 0.0 | 0.00 | 0.00 | 0.00 | 55 | 1021.8 |
| 20260503035024 | 62 | 0 | 0.0 | 0.0 | 0.00 | 0.00 | 0.00 | 55 | 1021.7 |
| 20260503034924 | 63 | 0 | 0.0 | 0.0 | 0.00 | 0.00 | 0.00 | 55 | 1021.7 |
| 20260503034803 | 63 | 0 | 0.0 | 0.0 | 0.00 | 0.00 | 0.00 | 55 | 1021.7 |
| 20260503034703 | 62 | 0 | 0.0 | 0.0 | 0.00 | 0.00 | 0.00 | 55 | 1021.7 |
| 20260503034603 | 62 | 0 | 0.0 | 0.0 | 0.00 | 0.00 | 0.00 | 56 | 1021.7 |
| 20260503034504 | 62 | 0 | 0.0 | 0.0 | 0.00 | 0.00 | 0.00 | 56 | 1021.6 |
| 20260503034404 | 62 | 0 | 0.0 | 0.0 | 0.00 | 0.00 | 0.00 | 56 | 1021.6 |
| 20260503034303 | 62 | 0 | 0.0 | 0.0 | 0.00 | 0.00 | 0.00 | 57 | 1021.6 |
| 20260503034203 | 62 | 0 | 0.0 | 0.0 | 0.00 | 0.00 | 0.00 | 56 | 1021.6 |
| 20260503034103 | 63 | 0 | 0.0 | 0.0 | 0.00 | 0.00 | 0.00 | 56 | 1021.6 |
| 20260503034004 | 63 | 0 | 0.0 | 0.0 | 0.00 | 0.00 | 0.00 | 57 | 1021.6 |
| 20260503033925 | 63 | 0 | 0.0 | 0.0 | 0.00 | 0.00 | 0.00 | 57 | 1021.6 |
| 20260503033804 | 63 | 0 | 0.0 | 0.0 | 0.00 | 0.00 | 0.00 | 57 | 1021.5 |
| 20260503033724 | 63 | 0 | 0.0 | 0.0 | 0.00 | 0.00 | 0.00 | 57 | 1021.5 |
| 20260503033604 | 63 | 0 | 0.0 | 0.0 | 0.00 | 0.00 | 0.00 | 57 | 1021.5 |
| 20260503033503 | 63 | 0 | 0.0 | 0.0 | 0.00 | 0.00 | 0.00 | 57 | 1021.5 |
| 20260503033424 | 63 | 0 | 0.0 | 0.0 | 0.00 | 0.00 | 0.00 | 57 | 1021.5 |
| 20260503033303 | 63 | 0 | 0.0 | 0.0 | 0.00 | 0.00 | 0.00 | 58 | 1021.5 |
| 20260503033203 | 63 | 0 | 0.0 | 0.0 | 0.00 | 0.00 | 0.00 | 58 | 1021.5 |
| 20260503033103 | 63 | 0 | 0.0 | 0.0 | 0.00 | 0.00 | 0.00 | 58 | 1021.5 |
| 20260503033004 | 63 | 0 | 0.0 | 0.0 | 0.00 | 0.00 | 0.00 | 58 | 1021.5 |
| 20260503032904 | 63 | 0 | 0.0 | 0.0 | 0.00 | 0.00 | 0.00 | 58 | 1021.5 |
| 20260503032803 | 63 | 0 | 0.0 | 0.0 | 0.00 | 0.00 | 0.00 | 58 | 1021.5 |
| 20260503032704 | 63 | 0 | 0.0 | 0.0 | 0.00 | 0.00 | 0.00 | 58 | 1021.5 |
| 20260503032625 | 63 | 0 | 0.0 | 0.0 | 0.00 | 0.00 | 0.00 | 58 | 1021.5 |
| 20260503032503 | 63 | 0 | 0.0 | 0.0 | 0.00 | 0.00 | 0.00 | 58 | 1021.5 |
| 20260503032424 | 63 | 0 | 0.0 | 0.0 | 0.00 | 0.00 | 0.00 | 58 | 1021.5 |
| 20260503032324 | 63 | 0 | 0.0 | 0.0 | 0.00 | 0.00 | 0.00 | 58 | 1021.4 |
| 20260503032203 | 63 | 0 | 0.0 | 0.0 | 0.00 | 0.00 | 0.00 | 58 | 1021.4 |
| 20260503032103 | 63 | 0 | 0.0 | 0.0 | 0.00 | 0.00 | 0.00 | 58 | 1021.4 |
| 20260503032025 | 63 | 0 | 0.0 | 0.0 | 0.00 | 0.00 | 0.00 | 58 | 1021.4 |
| 20260503031903 | 63 | 0 | 0.0 | 0.0 | 0.00 | 0.00 | 0.00 | 58 | 1021.4 |
| 20260503031804 | 63 | 0 | 0.0 | 0.0 | 0.00 | 0.00 | 0.00 | 58 | 1021.4 |
| 20260503031703 | 63 | 0 | 0.0 | 0.0 | 0.00 | 0.00 | 0.00 | 58 | 1021.4 |
| 20260503031625 | 63 | 0 | 0.0 | 0.0 | 0.00 | 0.00 | 0.00 | 58 | 1021.5 |
| 20260503031504 | 63 | 0 | 0.0 | 0.0 | 0.00 | 0.00 | 0.00 | 58 | 1021.4 |
| 20260503031403 | 63 | 0 | 0.0 | 0.0 | 0.00 | 0.00 | 0.00 | 58 | 1021.4 |
| 20260503031304 | 63 | 0 | 0.0 | 0.0 | 0.00 | 0.00 | 0.00 | 59 | 1021.4 |
| 20260503031203 | 63 | 0 | 0.0 | 0.0 | 0.00 | 0.00 | 0.00 | 59 | 1021.3 |
| 20260503031103 | 63 | 0 | 0.0 | 0.0 | 0.00 | 0.00 | 0.00 | 59 | 1021.4 |
| 20260503031025 | 63 | 0 | 0.0 | 0.0 | 0.00 | 0.00 | 0.00 | 59 | 1021.4 |
| 20260503030903 | 64 | 0 | 0.0 | 0.0 | 0.00 | 0.00 | 0.00 | 59 | 1021.3 |
| 20260503030804 | 64 | 0 | 0.0 | 0.0 | 0.00 | 0.00 | 0.00 | 59 | 1021.3 |
| 20260503030703 | 64 | 0 | 0.0 | 0.0 | 0.00 | 0.00 | 0.00 | 59 | 1021.4 |
| 20260503030603 | 64 | 0 | 0.0 | 0.0 | 0.00 | 0.00 | 0.00 | 59 | 1021.3 |
| 20260503030504 | 64 | 0 | 0.0 | 0.0 | 0.00 | 0.00 | 0.00 | 59 | 1021.3 |
| 20260503030424 | 64 | 0 | 0.0 | 0.0 | 0.00 | 0.00 | 0.00 | 59 | 1021.4 |
| 20260503030324 | 64 | 0 | 0.0 | 0.0 | 0.00 | 0.00 | 0.00 | 60 | 1021.4 |
| 20260503030203 | 64 | 0 | 0.0 | 0.0 | 0.00 | 0.00 | 0.00 | 60 | 1021.4 |
| 20260503030104 | 64 | 0 | 0.0 | 0.0 | 0.00 | 0.00 | 0.00 | 60 | 1021.4 |
| 20260503030004 | 64 | 0 | 0.0 | 0.0 | 0.00 | 0.00 | 0.00 | 60 | 1021.4 |
| 20260503025903 | 64 | 0 | 0.0 | 0.0 | 0.00 | 0.00 | 0.00 | 60 | 1021.4 |
| 20260503025804 | 64 | 0 | 0.0 | 0.0 | 0.00 | 0.00 | 0.00 | 60 | 1021.4 |
| 20260503025703 | 64 | 0 | 0.0 | 0.0 | 0.00 | 0.00 | 0.00 | 60 | 1021.4 |
| 20260503025604 | 64 | 0 | 0.0 | 0.0 | 0.00 | 0.00 | 0.00 | 60 | 1021.4 |
| 20260503025503 | 64 | 0 | 0.0 | 0.0 | 0.00 | 0.00 | 0.00 | 60 | 1021.4 |
| 20260503025404 | 64 | 0 | 0.0 | 0.0 | 0.00 | 0.00 | 0.00 | 60 | 1021.4 |
| 20260503025325 | 64 | 0 | 0.0 | 0.0 | 0.00 | 0.00 | 0.00 | 60 | 1021.3 |
| 20260503025225 | 64 | 0 | 0.0 | 0.0 | 0.00 | 0.00 | 0.00 | 60 | 1021.3 |
| 20260503025104 | 64 | 0 | 0.0 | 0.0 | 0.00 | 0.00 | 0.00 | 60 | 1021.3 |
| 20260503025003 | 64 | 0 | 0.0 | 0.0 | 0.00 | 0.00 | 0.00 | 60 | 1021.3 |
| 20260503024903 | 64 | 0 | 0.0 | 0.0 | 0.00 | 0.00 | 0.00 | 60 | 1021.2 |
| 20260503024824 | 64 | 0 | 0.0 | 0.0 | 0.00 | 0.00 | 0.00 | 60 | 1021.2 |
| 20260503024703 | 63 | 0 | 0.0 | 0.0 | 0.00 | 0.00 | 0.00 | 61 | 1021.2 |
| 20260503024604 | 63 | 0 | 0.0 | 0.0 | 0.00 | 0.00 | 0.00 | 61 | 1021.2 |
| 20260503024504 | 63 | 0 | 0.0 | 0.0 | 0.00 | 0.00 | 0.00 | 61 | 1021.1 |
| 20260503024404 | 63 | 0 | 0.0 | 0.0 | 0.00 | 0.00 | 0.00 | 61 | 1021.1 |
| 20260503024304 | 63 | 0 | 0.0 | 0.0 | 0.00 | 0.00 | 0.00 | 61 | 1021.0 |
| 20260503024204 | 62 | 0 | 0.0 | 0.0 | 0.00 | 0.00 | 0.00 | 62 | 1021.0 |
| 20260503024124 | 62 | 0 | 0.0 | 0.0 | 0.00 | 0.00 | 0.00 | 62 | 1021.0 |
| 20260503024003 | 62 | 0 | 0.0 | 0.0 | 0.00 | 0.00 | 0.00 | 62 | 1020.9 |
| 20260503023903 | 62 | 0 | 0.0 | 0.0 | 0.00 | 0.00 | 0.00 | 62 | 1020.9 |
| 20260503023803 | 62 | 0 | 0.0 | 0.0 | 0.00 | 0.00 | 0.00 | 62 | 1020.8 |
| 20260503023704 | 63 | 0 | 0.0 | 0.0 | 0.00 | 0.00 | 0.00 | 62 | 1020.8 |
| 20260503023604 | 63 | 0 | 0.0 | 0.0 | 0.00 | 0.00 | 0.00 | 62 | 1020.8 |
| 20260503023524 | 63 | 0 | 0.0 | 0.0 | 0.00 | 0.00 | 0.00 | 62 | 1020.8 |
| 20260503023403 | 63 | 0 | 0.0 | 0.0 | 0.00 | 0.00 | 0.00 | 63 | 1020.7 |
| 20260503023304 | 63 | 0 | 0.0 | 0.0 | 0.00 | 0.00 | 0.00 | 63 | 1020.8 |
| 20260503023203 | 63 | 0 | 0.0 | 0.0 | 0.00 | 0.00 | 0.00 | 63 | 1020.8 |
| 20260503023103 | 63 | 0 | 0.0 | 0.0 | 0.00 | 0.00 | 0.00 | 63 | 1020.7 |
| 20260503023004 | 63 | 0 | 0.0 | 0.0 | 0.00 | 0.00 | 0.00 | 63 | 1020.7 |
| 20260503022903 | 63 | 0 | 0.0 | 0.0 | 0.00 | 0.00 | 0.00 | 63 | 1020.7 |
| 20260503022803 | 63 | 0 | 0.0 | 0.0 | 0.00 | 0.00 | 0.00 | 63 | 1020.8 |
| 20260503022703 | 63 | 0 | 0.0 | 0.0 | 0.00 | 0.00 | 0.00 | 63 | 1020.7 |
| 20260503022604 | 63 | 0 | 0.0 | 0.0 | 0.00 | 0.00 | 0.00 | 63 | 1020.7 |
| 20260503022524 | 63 | 0 | 0.0 | 0.0 | 0.00 | 0.00 | 0.00 | 63 | 1020.7 |
| 20260503022424 | 64 | 0 | 0.0 | 0.0 | 0.00 | 0.00 | 0.00 | 63 | 1020.6 |
| 20260503022305 | 64 | 0 | 0.0 | 0.0 | 0.00 | 0.00 | 0.00 | 63 | 1020.6 |
| 20260503022204 | 64 | 0 | 0.0 | 0.0 | 0.00 | 0.00 | 0.00 | 63 | 1020.6 |
| 20260503022104 | 64 | 0 | 0.0 | 0.0 | 0.00 | 0.00 | 0.00 | 63 | 1020.6 |
| 20260503022003 | 64 | 0 | 0.0 | 0.0 | 0.00 | 0.00 | 0.00 | 63 | 1020.6 |
| 20260503021904 | 64 | 0 | 0.0 | 0.0 | 0.00 | 0.00 | 0.00 | 63 | 1020.6 |
| 20260503021804 | 64 | 0 | 0.0 | 0.0 | 0.00 | 0.00 | 0.00 | 63 | 1020.5 |
| 20260503021703 | 64 | 0 | 0.0 | 0.0 | 0.00 | 0.00 | 0.00 | 63 | 1020.6 |
| 20260503021625 | 64 | 0 | 0.0 | 0.0 | 0.00 | 0.00 | 0.00 | 63 | 1020.5 |
| 20260503021503 | 64 | 0 | 0.0 | 0.0 | 0.00 | 0.00 | 0.00 | 63 | 1020.6 |
| 20260503021425 | 64 | 0 | 0.0 | 0.0 | 0.00 | 0.00 | 0.00 | 63 | 1020.6 |
| 20260503021304 | 65 | 0 | 0.0 | 0.0 | 0.00 | 0.00 | 0.00 | 63 | 1020.5 |
| 20260503021203 | 65 | 0 | 0.0 | 0.0 | 0.00 | 0.00 | 0.00 | 63 | 1020.5 |
| 20260503021104 | 65 | 0 | 0.0 | 0.0 | 0.00 | 0.00 | 0.00 | 63 | 1020.5 |
| 20260503021003 | 65 | 0 | 0.0 | 0.0 | 0.00 | 0.00 | 0.00 | 63 | 1020.5 |
| 20260503020904 | 65 | 0 | 0.0 | 0.0 | 0.00 | 0.00 | 0.00 | 63 | 1020.5 |
| 20260503020803 | 65 | 0 | 0.0 | 0.0 | 0.00 | 0.00 | 0.00 | 63 | 1020.5 |
| 20260503020725 | 65 | 0 | 0.0 | 0.0 | 0.00 | 0.00 | 0.00 | 63 | 1020.4 |
| 20260503020625 | 65 | 0 | 0.0 | 0.0 | 0.00 | 0.00 | 0.00 | 63 | 1020.5 |
| 20260503020503 | 65 | 0 | 0.0 | 0.0 | 0.00 | 0.00 | 0.00 | 63 | 1020.6 |
| 20260503020404 | 65 | 0 | 0.0 | 0.0 | 0.00 | 0.00 | 0.00 | 62 | 1020.6 |
| 20260503020303 | 65 | 0 | 0.0 | 0.0 | 0.00 | 0.00 | 0.00 | 62 | 1020.6 |
| 20260503020203 | 65 | 0 | 0.0 | 0.0 | 0.00 | 0.00 | 0.00 | 62 | 1020.6 |
| 20260503020104 | 65 | 0 | 0.0 | 0.0 | 0.00 | 0.00 | 0.00 | 62 | 1020.6 |
| 20260503020004 | 65 | 0 | 0.0 | 0.0 | 0.00 | 0.00 | 0.00 | 63 | 1020.6 |
| 20260503015904 | 65 | 0 | 0.0 | 0.0 | 0.00 | 0.00 | 0.00 | 63 | 1020.5 |
| 20260503015825 | 65 | 0 | 0.0 | 0.0 | 0.00 | 0.00 | 0.00 | 63 | 1020.5 |
| 20260503015703 | 65 | 0 | 0.0 | 0.0 | 0.00 | 0.00 | 0.00 | 63 | 1020.5 |
| 20260503015625 | 65 | 0 | 0.0 | 0.0 | 0.00 | 0.00 | 0.00 | 63 | 1020.5 |
| 20260503015503 | 65 | 0 | 0.0 | 0.0 | 0.00 | 0.00 | 0.00 | 62 | 1020.4 |
| 20260503015403 | 65 | 0 | 0.0 | 0.0 | 0.00 | 0.00 | 0.00 | 62 | 1020.4 |
| 20260503015305 | 65 | 0 | 0.0 | 0.0 | 0.00 | 0.00 | 0.00 | 62 | 1020.5 |
| 20260503015203 | 65 | 0 | 0.0 | 0.0 | 0.00 | 0.00 | 0.00 | 62 | 1020.5 |
| 20260503015104 | 66 | 0 | 0.0 | 0.0 | 0.00 | 0.00 | 0.00 | 62 | 1020.5 |
| 20260503015025 | 66 | 0 | 0.0 | 0.0 | 0.00 | 0.00 | 0.00 | 61 | 1020.5 |
| 20260503014925 | 66 | 0 | 0.0 | 0.0 | 0.00 | 0.00 | 0.00 | 62 | 1020.5 |
| 20260503014804 | 66 | 0 | 0.0 | 0.0 | 0.00 | 0.00 | 0.00 | 61 | 1020.5 |
| 20260503014703 | 66 | 0 | 0.0 | 0.0 | 0.00 | 0.00 | 0.00 | 61 | 1020.5 |
| 20260503014603 | 66 | 0 | 0.0 | 0.0 | 0.00 | 0.00 | 0.00 | 61 | 1020.5 |
| 20260503014504 | 66 | 0 | 0.0 | 0.0 | 0.00 | 0.00 | 0.00 | 61 | 1020.5 |
| 20260503014403 | 66 | 0 | 0.0 | 0.0 | 0.00 | 0.00 | 0.00 | 61 | 1020.6 |
| 20260503014324 | 66 | 0 | 0.0 | 0.0 | 0.00 | 0.00 | 0.00 | 61 | 1020.6 |
| 20260503014225 | 67 | 0 | 0.0 | 0.0 | 0.00 | 0.00 | 0.00 | 61 | 1020.6 |
| 20260503014104 | 67 | 0 | 0.0 | 0.0 | 0.00 | 0.00 | 0.00 | 60 | 1020.6 |
| 20260503014004 | 67 | 0 | 0.0 | 0.0 | 0.00 | 0.00 | 0.00 | 60 | 1020.6 |
| 20260503013904 | 67 | 0 | 0.0 | 0.0 | 0.00 | 0.00 | 0.00 | 60 | 1020.5 |
| 20260503013804 | 67 | 0 | 0.0 | 0.0 | 0.00 | 0.00 | 0.00 | 60 | 1020.6 |
| 20260503013704 | 67 | 0 | 0.0 | 0.0 | 0.00 | 0.00 | 0.00 | 59 | 1020.5 |
| 20260503013603 | 67 | 0 | 0.0 | 0.0 | 0.00 | 0.00 | 0.00 | 59 | 1020.5 |
| 20260503013504 | 68 | 0 | 0.0 | 0.0 | 0.00 | 0.00 | 0.00 | 59 | 1020.5 |
| 20260503013403 | 68 | 0 | 0.0 | 0.0 | 0.00 | 0.00 | 0.00 | 59 | 1020.4 |
| 20260503013303 | 68 | 0 | 0.0 | 0.0 | 0.00 | 0.00 | 0.00 | 58 | 1020.5 |
| 20260503013224 | 68 | 0 | 0.0 | 0.0 | 0.00 | 0.00 | 0.00 | 58 | 1020.4 |
| 20260503013103 | 68 | 0 | 0.0 | 0.0 | 0.00 | 0.00 | 0.00 | 58 | 1020.5 |
| 20260503013003 | 68 | 0 | 0.0 | 0.0 | 0.00 | 0.00 | 0.00 | 58 | 1020.4 |
| 20260503012903 | 68 | 0 | 0.0 | 0.0 | 0.00 | 0.00 | 0.00 | 58 | 1020.4 |
| 20260503012803 | 68 | 0 | 0.0 | 0.0 | 0.00 | 0.00 | 0.00 | 57 | 1020.4 |
| 20260503012703 | 68 | 0 | 0.0 | 0.0 | 0.00 | 0.00 | 0.00 | 58 | 1020.4 |
| 20260503012603 | 69 | 0 | 0.0 | 0.0 | 0.00 | 0.00 | 0.00 | 57 | 1020.3 |
| 20260503012503 | 69 | 0 | 0.0 | 0.0 | 0.00 | 0.00 | 0.00 | 57 | 1020.3 |
| 20260503012403 | 69 | 0 | 0.0 | 0.0 | 0.00 | 0.00 | 0.00 | 57 | 1020.2 |
| 20260503012305 | 69 | 0 | 0.0 | 0.0 | 0.00 | 0.00 | 0.00 | 57 | 1020.2 |
| 20260503012204 | 69 | 0 | 0.0 | 0.0 | 0.00 | 0.00 | 0.00 | 57 | 1020.2 |
| 20260503012104 | 69 | 0 | 0.0 | 0.0 | 0.00 | 0.00 | 0.00 | 57 | 1020.1 |
| 20260503012003 | 69 | 0 | 0.0 | 0.0 | 0.00 | 0.00 | 0.00 | 57 | 1020.2 |
| 20260503011903 | 69 | 0 | 0.0 | 0.0 | 0.00 | 0.00 | 0.00 | 57 | 1020.2 |
| 20260503011803 | 69 | 0 | 0.0 | 0.0 | 0.00 | 0.00 | 0.00 | 56 | 1020.3 |
| 20260503011725 | 69 | 0 | 0.0 | 0.0 | 0.00 | 0.00 | 0.00 | 56 | 1020.2 |
| 20260503011603 | 69 | 0 | 0.0 | 0.0 | 0.00 | 0.00 | 0.00 | 56 | 1020.2 |
| 20260503011503 | 70 | 0 | 0.0 | 0.0 | 0.00 | 0.00 | 0.00 | 56 | 1020.2 |
| 20260503011403 | 70 | 0 | 0.0 | 0.0 | 0.00 | 0.00 | 0.00 | 55 | 1020.2 |
| 20260503011303 | 70 | 0 | 0.0 | 0.0 | 0.00 | 0.00 | 0.00 | 55 | 1020.2 |
| 20260503011224 | 70 | 0 | 0.0 | 0.0 | 0.00 | 0.00 | 0.00 | 55 | 1020.2 |
| 20260503011104 | 70 | 0 | 0.0 | 0.0 | 0.00 | 0.00 | 0.00 | 54 | 1020.2 |
| 20260503011024 | 70 | 0 | 0.0 | 0.0 | 0.00 | 0.00 | 0.00 | 54 | 1020.2 |
| 20260503010903 | 70 | 0 | 0.0 | 0.0 | 0.00 | 0.00 | 0.00 | 54 | 1020.3 |
| 20260503010803 | 70 | 0 | 0.0 | 0.0 | 0.00 | 0.00 | 0.00 | 54 | 1020.3 |
| 20260503010703 | 70 | 0 | 0.0 | 0.0 | 0.00 | 0.00 | 0.00 | 54 | 1020.2 |
| 20260503010604 | 70 | 0 | 0.0 | 0.0 | 0.00 | 0.00 | 0.00 | 54 | 1020.2 |
| 20260503010504 | 70 | 0 | 0.0 | 0.0 | 0.00 | 0.00 | 0.00 | 54 | 1020.3 |
| 20260503010424 | 70 | 0 | 0.0 | 0.0 | 0.00 | 0.00 | 0.00 | 54 | 1020.2 |
| 20260503010303 | 70 | 0 | 0.0 | 0.0 | 0.00 | 0.00 | 0.00 | 54 | 1020.2 |
| 20260503010204 | 70 | 0 | 0.0 | 0.0 | 0.00 | 0.00 | 0.00 | 54 | 1020.2 |
| 20260503010103 | 70 | 0 | 0.0 | 0.0 | 0.00 | 0.00 | 0.00 | 54 | 1020.2 |
| 20260503010004 | 70 | 0 | 0.0 | 0.0 | 0.00 | 0.00 | 0.00 | 54 | 1020.2 |
| 20260503005903 | 71 | 0 | 0.0 | 0.0 | 0.00 | 0.00 | 0.00 | 54 | 1020.2 |
| 20260503005804 | 71 | 0 | 0.0 | 0.0 | 0.00 | 0.00 | 0.00 | 53 | 1020.2 |
| 20260503005703 | 71 | 0 | 0.0 | 0.0 | 0.00 | 0.00 | 0.00 | 53 | 1020.2 |
| 20260503005604 | 71 | 200 | 0.0 | 1.0 | 0.00 | 0.00 | 0.00 | 53 | 1020.2 |
| 20260503005503 | 71 | 200 | 0.0 | 1.0 | 0.00 | 0.00 | 0.00 | 53 | 1020.1 |
| 20260503005403 | 71 | 200 | 0.0 | 1.0 | 0.00 | 0.00 | 0.00 | 53 | 1020.2 |
| 20260503005304 | 71 | 200 | 0.0 | 1.0 | 0.00 | 0.00 | 0.00 | 53 | 1020.1 |
| 20260503005204 | 71 | 200 | 0.0 | 1.0 | 0.00 | 0.00 | 0.00 | 53 | 1020.1 |
| 20260503005124 | 71 | 200 | 0.0 | 1.0 | 0.00 | 0.00 | 0.00 | 53 | 1020.1 |
| 20260503005024 | 71 | 200 | 0.0 | 1.0 | 0.00 | 0.00 | 0.00 | 53 | 1020.1 |
| 20260503004925 | 71 | 200 | 0.0 | 1.0 | 0.00 | 0.00 | 0.00 | 53 | 1020.1 |
| 20260503004803 | 71 | 200 | 0.0 | 1.0 | 0.00 | 0.00 | 0.00 | 52 | 1020.2 |
| 20260503004704 | 71 | 200 | 0.0 | 1.0 | 0.00 | 0.00 | 0.00 | 52 | 1020.2 |
| 20260503004603 | 71 | 200 | 0.0 | 1.0 | 0.00 | 0.00 | 0.00 | 52 | 1020.1 |
| 20260503004503 | 71 | 200 | 0.0 | 1.0 | 0.00 | 0.00 | 0.00 | 52 | 1020.1 |
| 20260503004403 | 72 | 200 | 0.0 | 1.0 | 0.00 | 0.00 | 0.00 | 52 | 1020.1 |
| 20260503004303 | 72 | 200 | 0.0 | 1.0 | 0.00 | 0.00 | 0.00 | 52 | 1020.1 |
| 20260503004203 | 72 | 201 | 0.0 | 4.0 | 0.00 | 0.00 | 0.00 | 51 | 1020.1 |
| 20260503004103 | 72 | 201 | 0.0 | 4.0 | 0.00 | 0.00 | 0.00 | 51 | 1020.1 |
| 20260503004004 | 72 | 201 | 0.0 | 4.0 | 0.00 | 0.00 | 0.00 | 51 | 1020.1 |
| 20260503003903 | 72 | 201 | 0.0 | 4.0 | 0.00 | 0.00 | 0.00 | 51 | 1020.1 |
| 20260503003804 | 72 | 200 | 0.0 | 4.0 | 0.00 | 0.00 | 0.00 | 50 | 1020.1 |
| 20260503003703 | 72 | 200 | 0.0 | 4.0 | 0.00 | 0.00 | 0.00 | 50 | 1020.1 |
| 20260503003603 | 72 | 200 | 0.0 | 4.0 | 0.00 | 0.00 | 0.00 | 49 | 1020.1 |
| 20260503003503 | 72 | 200 | 0.0 | 4.0 | 0.00 | 0.00 | 0.00 | 50 | 1020.1 |
| 20260503003403 | 72 | 200 | 0.0 | 4.0 | 0.00 | 0.00 | 0.00 | 49 | 1020.2 |
| 20260503003303 | 72 | 200 | 0.0 | 4.0 | 0.00 | 0.00 | 0.00 | 49 | 1020.1 |
| 20260503003203 | 72 | 198 | 0.0 | 3.0 | 0.00 | 0.00 | 0.00 | 49 | 1020.1 |
| 20260503003103 | 73 | 198 | 0.0 | 3.0 | 0.00 | 0.00 | 0.00 | 48 | 1020.1 |
| 20260503003024 | 73 | 201 | 0.0 | 4.0 | 0.00 | 0.00 | 0.00 | 48 | 1020.2 |
| 20260503002903 | 73 | 202 | 0.0 | 4.0 | 0.00 | 0.00 | 0.00 | 48 | 1020.2 |
| 20260503002804 | 73 | 205 | 0.0 | 4.0 | 0.00 | 0.00 | 0.00 | 48 | 1020.1 |
| 20260503002704 | 73 | 205 | 0.0 | 4.0 | 0.00 | 0.00 | 0.00 | 49 | 1020.1 |
| 20260503002604 | 73 | 206 | 0.0 | 4.0 | 0.00 | 0.00 | 0.00 | 48 | 1020.1 |
| 20260503002503 | 73 | 207 | 0.0 | 4.0 | 0.00 | 0.00 | 0.00 | 48 | 1020.1 |
| 20260503002403 | 73 | 207 | 0.0 | 4.0 | 0.00 | 0.00 | 0.00 | 48 | 1020.1 |
| 20260503002305 | 73 | 207 | 0.0 | 4.0 | 0.00 | 0.00 | 0.00 | 48 | 1020.1 |
| 20260503002203 | 73 | 207 | 0.0 | 4.0 | 0.00 | 0.00 | 0.00 | 48 | 1020.1 |
| 20260503002103 | 73 | 207 | 0.0 | 4.0 | 0.00 | 0.00 | 0.00 | 47 | 1020.1 |
| 20260503002003 | 73 | 211 | 0.0 | 3.0 | 0.00 | 0.00 | 0.00 | 47 | 1020.1 |
| 20260503001903 | 73 | 211 | 0.0 | 3.0 | 0.00 | 0.00 | 0.00 | 47 | 1020.1 |
| 20260503001804 | 73 | 211 | 0.0 | 3.0 | 0.00 | 0.00 | 0.00 | 47 | 1020.1 |
| 20260503001704 | 73 | 199 | 0.0 | 3.0 | 0.00 | 0.00 | 0.00 | 47 | 1020.0 |
| 20260503001603 | 73 | 193 | 0.0 | 3.0 | 0.00 | 0.00 | 0.00 | 47 | 1020.0 |
| 20260503001504 | 73 | 190 | 0.0 | 3.0 | 0.00 | 0.00 | 0.00 | 47 | 1020.1 |
| 20260503001403 | 73 | 190 | 0.0 | 3.0 | 0.00 | 0.00 | 0.00 | 47 | 1020.1 |
| 20260503001325 | 73 | 190 | 0.0 | 3.0 | 0.00 | 0.00 | 0.00 | 46 | 1020.1 |
| 20260503001203 | 73 | 190 | 0.0 | 3.0 | 0.00 | 0.01 | 0.00 | 46 | 1020.1 |
| 20260503001104 | 73 | 190 | 0.0 | 3.0 | 0.00 | 0.01 | 0.00 | 46 | 1020.0 |
| 20260503001004 | 73 | 190 | 0.0 | 3.0 | 0.00 | 0.01 | 0.00 | 46 | 1020.1 |
| 20260503000904 | 73 | 190 | 0.0 | 3.0 | 0.00 | 0.01 | 0.00 | 45 | 1020.0 |
| 20260503000803 | 74 | 190 | 0.0 | 3.0 | 0.00 | 0.01 | 0.00 | 46 | 1020.1 |
| 20260503000703 | 74 | 190 | 0.0 | 3.0 | 0.00 | 0.01 | 0.00 | 46 | 1020.0 |
| 20260503000603 | 74 | 0 | 0.0 | 0.0 | 0.00 | 0.01 | 0.00 | 45 | 1020.0 |
| 20260503000503 | 74 | 200 | 0.0 | 1.0 | 0.00 | 0.01 | 0.00 | 45 | 1020.0 |
| 20260503000403 | 74 | 200 | 0.0 | 1.0 | 0.00 | 0.01 | 0.00 | 45 | 1020.0 |
| 20260503000304 | 74 | 198 | 0.0 | 3.0 | 0.00 | 0.01 | 0.00 | 44 | 1020.0 |
| 20260503000204 | 74 | 198 | 0.0 | 3.0 | 0.00 | 0.01 | 0.00 | 44 | 1020.0 |
| 20260503000124 | 74 | 198 | 0.0 | 3.0 | 0.00 | 0.01 | 0.00 | 44 | 1020.0 |
| 20260503000004 | 74 | 198 | 0.0 | 3.0 | 0.00 | 0.01 | 0.00 | 44 | 1020.0 |
| 20260502235903 | 74 | 198 | 0.0 | 3.0 | 0.00 | 0.02 | 0.00 | 46 | 1020.0 |
| 20260502235825 | 74 | 198 | 0.0 | 3.0 | 0.00 | 0.02 | 0.00 | 45 | 1020.0 |
| 20260502235704 | 74 | 198 | 0.0 | 3.0 | 0.00 | 0.02 | 0.00 | 45 | 1019.9 |
| 20260502235603 | 74 | 198 | 0.0 | 3.0 | 0.00 | 0.02 | 0.00 | 45 | 1020.0 |
| 20260502235524 | 74 | 198 | 0.0 | 3.0 | 0.00 | 0.02 | 0.00 | 45 | 1019.9 |
| 20260502235404 | 74 | 197 | 0.0 | 3.0 | 0.00 | 0.02 | 0.00 | 45 | 1020.0 |
| 20260502235305 | 74 | 0 | 0.0 | 0.0 | 0.00 | 0.02 | 0.00 | 45 | 1020.0 |
| 20260502235203 | 74 | 0 | 0.0 | 0.0 | 0.00 | 0.02 | 0.00 | 44 | 1020.0 |
| 20260502235125 | 74 | 0 | 0.0 | 0.0 | 0.00 | 0.02 | 0.00 | 44 | 1020.0 |
| 20260502235003 | 74 | 0 | 0.0 | 0.0 | 0.00 | 0.02 | 0.00 | 45 | 1020.0 |
| 20260502234903 | 74 | 0 | 0.0 | 0.0 | 0.00 | 0.02 | 0.00 | 45 | 1020.0 |
| 20260502234824 | 74 | 0 | 0.0 | 0.0 | 0.00 | 0.02 | 0.00 | 44 | 1020.0 |
| 20260502234703 | 74 | 0 | 0.0 | 0.0 | 0.00 | 0.02 | 0.00 | 44 | 1019.9 |
| 20260502234603 | 74 | 0 | 0.0 | 0.0 | 0.00 | 0.02 | 0.00 | 45 | 1019.9 |
| 20260502234504 | 74 | 0 | 0.0 | 0.0 | 0.00 | 0.02 | 0.00 | 45 | 1019.9 |
| 20260502234404 | 74 | 0 | 0.0 | 0.0 | 0.00 | 0.02 | 0.00 | 44 | 1020.0 |
| 20260502234303 | 74 | 0 | 0.0 | 0.0 | 0.00 | 0.02 | 0.00 | 45 | 1019.9 |
| 20260502234204 | 74 | 0 | 0.0 | 0.0 | 0.00 | 0.02 | 0.00 | 45 | 1019.9 |
| 20260502234103 | 74 | 0 | 0.0 | 0.0 | 0.00 | 0.02 | 0.00 | 45 | 1019.9 |
| 20260502234004 | 74 | 0 | 0.0 | 0.0 | 0.00 | 0.02 | 0.00 | 45 | 1019.9 |
| 20260502233903 | 74 | 0 | 0.0 | 0.0 | 0.00 | 0.02 | 0.00 | 44 | 1019.9 |
| 20260502233803 | 74 | 0 | 0.0 | 0.0 | 0.00 | 0.02 | 0.00 | 44 | 1019.9 |
| 20260502233704 | 74 | 0 | 0.0 | 0.0 | 0.00 | 0.02 | 0.00 | 44 | 1019.9 |
| 20260502233603 | 74 | 0 | 0.0 | 0.0 | 0.00 | 0.02 | 0.00 | 44 | 1019.9 |
| 20260502233503 | 74 | 0 | 0.0 | 0.0 | 0.00 | 0.02 | 0.00 | 44 | 1019.9 |
| 20260502233403 | 74 | 0 | 0.0 | 0.0 | 0.00 | 0.02 | 0.00 | 44 | 1019.9 |
| 20260502233303 | 74 | 0 | 0.0 | 0.0 | 0.00 | 0.02 | 0.00 | 43 | 1020.0 |
| 20260502233224 | 74 | 0 | 0.0 | 0.0 | 0.00 | 0.02 | 0.00 | 43 | 1019.9 |
| 20260502233103 | 74 | 214 | 0.0 | 1.0 | 0.00 | 0.02 | 0.00 | 43 | 1019.9 |
| 20260502233004 | 74 | 214 | 0.0 | 1.0 | 0.00 | 0.02 | 0.00 | 44 | 1019.9 |
| 20260502232903 | 74 | 214 | 0.0 | 1.0 | 0.00 | 0.02 | 0.00 | 44 | 1020.0 |
| 20260502232804 | 74 | 214 | 0.0 | 1.0 | 0.00 | 0.02 | 0.00 | 44 | 1020.0 |
| 20260502232703 | 74 | 214 | 0.0 | 1.0 | 0.00 | 0.02 | 0.00 | 43 | 1020.0 |
| 20260502232603 | 74 | 214 | 0.0 | 1.0 | 0.00 | 0.02 | 0.00 | 44 | 1019.9 |
| 20260502232503 | 74 | 214 | 0.0 | 1.0 | 0.00 | 0.02 | 0.00 | 44 | 1019.9 |
| 20260502232403 | 74 | 214 | 0.0 | 1.0 | 0.00 | 0.02 | 0.00 | 44 | 1019.9 |
| 20260502232305 | 74 | 214 | 0.0 | 1.0 | 0.00 | 0.02 | 0.00 | 43 | 1019.9 |
| 20260502232203 | 74 | 214 | 0.0 | 1.0 | 0.00 | 0.02 | 0.00 | 43 | 1019.9 |
| 20260502232103 | 74 | 195 | 0.0 | 2.0 | 0.00 | 0.02 | 0.00 | 43 | 1019.9 |
| 20260502232003 | 74 | 196 | 0.0 | 5.0 | 0.00 | 0.02 | 0.00 | 44 | 1019.9 |
| 20260502231925 | 74 | 196 | 0.0 | 5.0 | 0.00 | 0.02 | 0.00 | 44 | 1019.9 |
| 20260502231804 | 74 | 196 | 0.0 | 5.0 | 0.00 | 0.02 | 0.00 | 44 | 1019.9 |
| 20260502231703 | 74 | 196 | 0.0 | 5.0 | 0.00 | 0.02 | 0.00 | 45 | 1019.9 |
| 20260502231603 | 74 | 196 | 0.0 | 5.0 | 0.00 | 0.02 | 0.00 | 43 | 1019.9 |
| 20260502231504 | 74 | 196 | 0.0 | 5.0 | 0.00 | 0.02 | 0.00 | 43 | 1019.9 |
| 20260502231403 | 74 | 196 | 0.0 | 5.0 | 0.00 | 0.02 | 0.00 | 42 | 1019.9 |
| 20260502231324 | 74 | 196 | 0.0 | 5.0 | 0.00 | 0.02 | 0.00 | 42 | 1019.8 |
| 20260502231224 | 74 | 196 | 0.0 | 5.0 | 0.00 | 0.02 | 0.00 | 42 | 1019.9 |
| 20260502231103 | 75 | 196 | 0.0 | 5.0 | 0.00 | 0.02 | 0.00 | 43 | 1019.9 |
| 20260502231003 | 75 | 0 | 0.0 | 0.0 | 0.00 | 0.02 | 0.00 | 43 | 1019.9 |
| 20260502230903 | 75 | 0 | 0.0 | 0.0 | 0.00 | 0.02 | 0.00 | 42 | 1019.8 |
| 20260502230803 | 75 | 0 | 0.0 | 0.0 | 0.00 | 0.02 | 0.00 | 42 | 1019.8 |
| 20260502230703 | 75 | 0 | 0.0 | 0.0 | 0.00 | 0.02 | 0.00 | 43 | 1019.9 |
| 20260502230603 | 75 | 0 | 0.0 | 0.0 | 0.00 | 0.02 | 0.00 | 43 | 1019.9 |
| 20260502230525 | 75 | 0 | 0.0 | 0.0 | 0.00 | 0.02 | 0.00 | 43 | 1019.9 |
| 20260502230404 | 75 | 0 | 0.0 | 0.0 | 0.00 | 0.02 | 0.00 | 44 | 1019.9 |
| 20260502230303 | 75 | 0 | 0.0 | 1.0 | 0.00 | 0.02 | 0.00 | 43 | 1019.9 |
| 20260502230203 | 75 | 0 | 0.0 | 1.0 | 0.00 | 0.02 | 0.00 | 43 | 1019.9 |
| 20260502230024 | 74 | 0 | 0.0 | 1.0 | 0.00 | 0.02 | 0.00 | 43 | 1019.9 |
| 20260502225903 | 74 | 0 | 0.0 | 1.0 | 0.00 | 0.02 | 0.00 | 42 | 1019.9 |
| 20260502225804 | 74 | 0 | 0.0 | 1.0 | 0.00 | 0.02 | 0.00 | 42 | 1019.8 |
| 20260502225703 | 74 | 0 | 0.0 | 1.0 | 0.00 | 0.02 | 0.00 | 42 | 1019.8 |
| 20260502225604 | 74 | 0 | 0.0 | 1.0 | 0.00 | 0.02 | 0.00 | 42 | 1019.8 |
| 20260502225504 | 74 | 0 | 0.0 | 1.0 | 0.00 | 0.02 | 0.00 | 42 | 1019.8 |
| 20260502225424 | 74 | 0 | 0.0 | 1.0 | 0.00 | 0.02 | 0.00 | 42 | 1019.9 |
| 20260502225304 | 74 | 170 | 0.0 | 7.0 | 0.00 | 0.02 | 0.00 | 43 | 1019.9 |
| 20260502225203 | 74 | 170 | 0.0 | 7.0 | 0.00 | 0.02 | 0.00 | 43 | 1019.9 |
| 20260502225104 | 74 | 173 | 0.0 | 7.0 | 0.00 | 0.02 | 0.00 | 43 | 1019.9 |
| 20260502225024 | 74 | 173 | 0.0 | 7.0 | 0.00 | 0.02 | 0.00 | 43 | 1019.8 |